Time,TemperatureF,DewpointF,PressureIn,WindDirection,WindDirectionDegrees,WindSpeedMPH,WindSpeedGustMPH,Humidity,HourlyPrecipIn,Conditions,Clouds,dailyrainin,SoftwareType,DateUTC
2013-04-09 00:00:00,61.3,47.3,30.39,SE,146,0.0,4.0,60,0.00,,---,0.00,VWS V14.01,2013-04-09 04:00:00,
2013-04-09 00:05:00,61.3,47.3,30.39,SSE,161,0.0,2.2,60,0.00,,---,0.00,VWS V14.01,2013-04-09 04:05:00,
2013-04-09 00:10:00,61.3,47.3,30.39,SSW,204,0.0,0.0,60,0.00,,---,0.00,VWS V14.01,2013-04-09 04:10:00,
2013-04-09 00:15:00,61.3,47.3,30.39,SSW,200,0.0,0.0,60,0.00,,---,0.00,VWS V14.01,2013-04-09 04:15:00,
2013-04-09 00:20:00,61.2,47.2,30.39,SW,227,2.7,2.7,60,0.00,,---,0.00,VWS V14.01,2013-04-09 04:20:00,
2013-04-09 00:25:00,61.0,47.5,30.39,SSW,206,0.0,0.0,61,0.00,,---,0.00,VWS V14.01,2013-04-09 04:25:00,
2013-04-09 00:30:00,61.0,47.5,30.39,SE,142,0.0,0.0,61,0.00,,---,0.00,VWS V14.01,2013-04-09 04:30:00,
2013-04-09 00:35:00,60.8,47.3,30.39,South,175,2.7,2.7,61,0.00,,---,0.00,VWS V14.01,2013-04-09 04:35:00,
2013-04-09 00:36:00,60.8,47.3,30.39,South,173,3.1,3.1,61,0.00,,---,0.00,VWS V14.01,2013-04-09 04:36:00,
2013-04-09 00:40:00,60.6,47.5,30.39,SSE,159,3.6,4.9,62,0.00,,---,0.00,VWS V14.01,2013-04-09 04:40:00,
2013-04-09 00:41:00,60.6,47.5,30.39,South,187,2.7,2.7,62,0.00,,---,0.00,VWS V14.01,2013-04-09 04:41:00,
2013-04-09 00:42:00,60.6,47.5,30.39,South,187,2.7,2.7,62,0.00,,---,0.00,VWS V14.01,2013-04-09 04:42:00,
2013-04-09 00:45:00,60.6,47.5,30.39,South,182,0.0,0.0,62,0.00,,---,0.00,VWS V14.01,2013-04-09 04:45:00,
2013-04-09 00:46:00,60.6,47.5,30.39,SSW,210,0.0,0.0,62,0.00,,---,0.00,VWS V14.01,2013-04-09 04:46:00,
2013-04-09 00:47:00,60.6,47.5,30.39,SSW,210,0.0,0.0,62,0.00,,---,0.00,VWS V14.01,2013-04-09 04:47:00,
2013-04-09 00:50:00,60.6,47.5,30.39,SSE,167,0.0,0.0,62,0.00,,---,0.00,VWS V14.01,2013-04-09 04:50:00,
2013-04-09 00:51:00,60.6,47.5,30.39,SSE,167,0.0,0.0,62,0.00,,---,0.00,VWS V14.01,2013-04-09 04:51:00,
2013-04-09 00:52:00,60.6,47.5,30.39,SW,216,0.0,0.0,62,0.00,,---,0.00,VWS V14.01,2013-04-09 04:52:00,
2013-04-09 00:55:00,60.4,47.4,30.39,South,175,0.0,0.0,62,0.00,,---,0.00,VWS V14.01,2013-04-09 04:55:00,
2013-04-09 00:56:00,60.4,47.4,30.39,South,175,0.0,0.0,62,0.00,,---,0.00,VWS V14.01,2013-04-09 04:56:00,
2013-04-09 00:57:00,60.4,47.4,30.39,South,175,0.0,0.0,62,0.00,,---,0.00,VWS V14.01,2013-04-09 04:57:00,
2013-04-09 01:00:00,60.4,47.4,30.39,South,176,0.0,2.7,62,0.00,,---,0.00,VWS V14.01,2013-04-09 05:00:00,
2013-04-09 01:01:00,60.3,47.6,30.39,SSE,157,0.0,0.0,63,0.00,,---,0.00,VWS V14.01,2013-04-09 05:01:00,
2013-04-09 01:02:00,60.3,47.6,30.39,SSW,192,3.6,3.6,63,0.00,,---,0.00,VWS V14.01,2013-04-09 05:02:00,
2013-04-09 01:05:00,60.3,47.6,30.39,South,182,0.0,0.0,63,0.00,,---,0.00,VWS V14.01,2013-04-09 05:05:00,
2013-04-09 01:07:00,60.1,47.5,30.39,South,182,0.0,0.0,63,0.00,,---,0.00,VWS V14.01,2013-04-09 05:07:00,
2013-04-09 01:10:00,59.9,47.3,30.39,SSW,203,0.0,0.0,63,0.00,,---,0.00,VWS V14.01,2013-04-09 05:10:00,
2013-04-09 01:12:00,59.9,47.3,30.39,South,181,0.0,0.0,63,0.00,,---,0.00,VWS V14.01,2013-04-09 05:12:00,
2013-04-09 01:15:00,59.9,47.3,30.39,South,171,0.0,0.0,63,0.00,,---,0.00,VWS V14.01,2013-04-09 05:15:00,
2013-04-09 01:16:00,59.9,47.3,30.39,South,171,0.0,0.0,63,0.00,,---,0.00,VWS V14.01,2013-04-09 05:16:00,
2013-04-09 01:17:00,59.9,47.3,30.39,South,171,0.0,0.0,63,0.00,,---,0.00,VWS V14.01,2013-04-09 05:17:00,
2013-04-09 01:20:00,59.7,47.5,30.39,South,171,0.0,0.0,64,0.00,,---,0.00,VWS V14.01,2013-04-09 05:20:00,
2013-04-09 01:21:00,59.7,47.5,30.39,South,171,0.0,0.0,64,0.00,,---,0.00,VWS V14.01,2013-04-09 05:21:00,
2013-04-09 01:22:00,59.5,47.8,30.39,SSE,168,0.0,0.0,65,0.00,,---,0.00,VWS V14.01,2013-04-09 05:22:00,
2013-04-09 01:23:00,59.5,47.8,30.39,SSE,168,0.0,0.0,65,0.00,,---,0.00,VWS V14.01,2013-04-09 05:23:00,
2013-04-09 01:25:00,59.5,47.8,30.39,South,183,0.0,0.0,65,0.00,,---,0.00,VWS V14.01,2013-04-09 05:25:00,
2013-04-09 01:26:00,59.5,47.8,30.39,South,183,0.0,0.0,65,0.00,,---,0.00,VWS V14.01,2013-04-09 05:26:00,
2013-04-09 01:27:00,59.5,47.8,30.39,South,183,0.0,0.0,65,0.00,,---,0.00,VWS V14.01,2013-04-09 05:27:00,
2013-04-09 01:28:00,59.5,48.2,30.39,South,183,0.0,0.0,66,0.00,,---,0.00,VWS V14.01,2013-04-09 05:28:00,
2013-04-09 01:31:00,59.4,48.0,30.39,South,183,0.0,0.0,66,0.00,,---,0.00,VWS V14.01,2013-04-09 05:31:00,
2013-04-09 01:33:00,59.4,48.4,30.39,South,183,0.0,0.0,67,0.00,,---,0.00,VWS V14.01,2013-04-09 05:33:00,
2013-04-09 01:36:00,59.4,48.4,30.39,SSE,166,0.0,0.0,67,0.00,,---,0.00,VWS V14.01,2013-04-09 05:36:00,
2013-04-09 01:37:00,59.4,48.4,30.39,SSE,166,0.0,0.0,67,0.00,,---,0.00,VWS V14.01,2013-04-09 05:37:00,
2013-04-09 01:38:00,59.4,48.4,30.39,SSE,166,0.0,0.0,67,0.00,,---,0.00,VWS V14.01,2013-04-09 05:38:00,
2013-04-09 01:41:00,59.4,48.4,30.39,South,184,0.0,0.0,67,0.00,,---,0.00,VWS V14.01,2013-04-09 05:41:00,
2013-04-09 01:42:00,59.4,48.4,30.39,South,184,0.0,0.0,67,0.00,,---,0.00,VWS V14.01,2013-04-09 05:42:00,
2013-04-09 01:43:00,59.4,48.4,30.39,South,184,0.0,0.0,67,0.00,,---,0.00,VWS V14.01,2013-04-09 05:43:00,
2013-04-09 01:47:00,59.4,48.4,30.39,South,171,3.1,3.1,67,0.00,,---,0.00,VWS V14.01,2013-04-09 05:47:00,
2013-04-09 01:48:00,59.4,48.4,30.39,South,171,3.1,3.1,67,0.00,,---,0.00,VWS V14.01,2013-04-09 05:48:00,
2013-04-09 01:52:00,59.4,49.6,30.39,South,177,2.7,2.7,70,0.00,,---,0.00,VWS V14.01,2013-04-09 05:52:00,
2013-04-09 01:53:00,59.4,49.6,30.39,SSW,200,0.0,3.1,70,0.00,,---,0.00,VWS V14.01,2013-04-09 05:53:00,
2013-04-09 01:57:00,59.5,49.8,30.39,South,183,2.2,2.7,70,0.00,,---,0.00,VWS V14.01,2013-04-09 05:57:00,
2013-04-09 01:58:00,59.5,50.1,30.39,South,184,0.0,0.0,71,0.00,,---,0.00,VWS V14.01,2013-04-09 05:58:00,
2013-04-09 02:02:00,59.5,50.1,30.39,South,183,2.2,2.2,71,0.00,,---,0.00,VWS V14.01,2013-04-09 06:02:00,
2013-04-09 02:03:00,59.5,50.1,30.39,South,170,0.0,0.0,71,0.00,,---,0.00,VWS V14.01,2013-04-09 06:03:00,
2013-04-09 02:07:00,59.5,50.1,30.39,SSW,205,0.0,0.0,71,0.00,,---,0.00,VWS V14.01,2013-04-09 06:07:00,
2013-04-09 02:08:00,59.5,50.1,30.39,SSW,205,0.0,0.0,71,0.00,,---,0.00,VWS V14.01,2013-04-09 06:08:00,
2013-04-09 02:09:00,59.5,50.1,30.39,SSW,205,0.0,0.0,71,0.00,,---,0.00,VWS V14.01,2013-04-09 06:09:00,
2013-04-09 02:12:00,59.5,49.8,30.39,SSW,192,0.0,0.0,70,0.00,,---,0.00,VWS V14.01,2013-04-09 06:12:00,
2013-04-09 02:13:00,59.5,50.1,30.39,SSW,192,0.0,0.0,71,0.00,,---,0.00,VWS V14.01,2013-04-09 06:13:00,
2013-04-09 02:14:00,59.5,50.1,30.39,South,189,0.0,0.0,71,0.00,,---,0.00,VWS V14.01,2013-04-09 06:14:00,
2013-04-09 02:17:00,59.5,50.1,30.39,South,172,0.0,0.0,71,0.00,,---,0.00,VWS V14.01,2013-04-09 06:17:00,
2013-04-09 02:18:00,59.5,50.1,30.39,South,182,0.0,0.0,71,0.00,,---,0.00,VWS V14.01,2013-04-09 06:18:00,
2013-04-09 02:19:00,59.4,50.0,30.39,South,169,2.2,2.2,71,0.00,,---,0.00,VWS V14.01,2013-04-09 06:19:00,
2013-04-09 02:22:00,59.4,50.0,30.39,SSE,164,0.0,2.2,71,0.00,,---,0.00,VWS V14.01,2013-04-09 06:22:00,
2013-04-09 02:23:00,59.4,50.0,30.39,SSE,164,0.0,2.2,71,0.00,,---,0.00,VWS V14.01,2013-04-09 06:23:00,
2013-04-09 02:24:00,59.4,50.0,30.39,SSE,164,0.0,0.0,71,0.00,,---,0.00,VWS V14.01,2013-04-09 06:24:00,
2013-04-09 02:27:00,59.4,50.3,30.39,South,171,0.0,0.0,72,0.00,,---,0.00,VWS V14.01,2013-04-09 06:27:00,
2013-04-09 02:28:00,59.4,50.3,30.39,South,171,0.0,0.0,72,0.00,,---,0.00,VWS V14.01,2013-04-09 06:28:00,
2013-04-09 02:29:00,59.4,50.3,30.36,South,186,0.0,0.0,72,0.00,,---,0.00,VWS V14.01,2013-04-09 06:29:00,
2013-04-09 02:32:00,59.4,50.7,30.36,SSE,155,0.0,0.0,73,0.00,,---,0.00,VWS V14.01,2013-04-09 06:32:00,
2013-04-09 02:33:00,59.4,50.7,30.36,SSE,155,0.0,0.0,73,0.00,,---,0.00,VWS V14.01,2013-04-09 06:33:00,
2013-04-09 02:34:00,59.4,50.7,30.36,SSE,165,0.0,0.0,73,0.00,,---,0.00,VWS V14.01,2013-04-09 06:34:00,
2013-04-09 02:37:00,59.4,50.7,30.36,South,183,0.0,0.0,73,0.00,,---,0.00,VWS V14.01,2013-04-09 06:37:00,
2013-04-09 02:38:00,59.4,50.7,30.36,South,183,0.0,0.0,73,0.00,,---,0.00,VWS V14.01,2013-04-09 06:38:00,
2013-04-09 02:39:00,59.4,50.7,30.36,South,183,0.0,0.0,73,0.00,,---,0.00,VWS V14.01,2013-04-09 06:39:00,
2013-04-09 02:42:00,59.4,50.7,30.36,SSW,196,0.0,0.0,73,0.00,,---,0.00,VWS V14.01,2013-04-09 06:42:00,
2013-04-09 02:43:00,59.4,50.7,30.36,SSE,158,0.0,0.0,73,0.00,,---,0.00,VWS V14.01,2013-04-09 06:43:00,
2013-04-09 02:44:00,59.4,51.1,30.36,SSE,158,0.0,0.0,74,0.00,,---,0.00,VWS V14.01,2013-04-09 06:44:00,
2013-04-09 02:47:00,59.4,51.1,30.36,SSE,165,0.0,0.0,74,0.00,,---,0.00,VWS V14.01,2013-04-09 06:47:00,
2013-04-09 02:48:00,59.4,51.1,30.36,SSE,165,0.0,0.0,74,0.00,,---,0.00,VWS V14.01,2013-04-09 06:48:00,
2013-04-09 02:49:00,59.4,51.1,30.36,SSE,165,0.0,0.0,74,0.00,,---,0.00,VWS V14.01,2013-04-09 06:49:00,
2013-04-09 02:53:00,59.4,51.1,30.36,South,189,0.0,0.0,74,0.00,,---,0.00,VWS V14.01,2013-04-09 06:53:00,
2013-04-09 02:55:00,59.4,51.1,30.36,South,191,0.0,0.0,74,0.00,,---,0.00,VWS V14.01,2013-04-09 06:55:00,
2013-04-09 02:57:00,59.4,51.1,30.36,SSE,151,0.0,2.7,74,0.00,,---,0.00,VWS V14.01,2013-04-09 06:57:00,
2013-04-09 02:58:00,59.4,51.1,30.36,SE,139,2.7,2.7,74,0.00,,---,0.00,VWS V14.01,2013-04-09 06:58:00,
2013-04-09 03:00:00,59.4,51.1,30.36,SE,139,2.7,2.7,74,0.00,,---,0.00,VWS V14.01,2013-04-09 07:00:00,
2013-04-09 03:03:00,59.4,51.1,30.36,South,169,0.0,0.0,74,0.00,,---,0.00,VWS V14.01,2013-04-09 07:03:00,
2013-04-09 03:05:00,59.4,51.1,30.36,SSE,163,2.7,2.7,74,0.00,,---,0.00,VWS V14.01,2013-04-09 07:05:00,
2013-04-09 03:08:00,59.5,51.6,30.36,SSE,163,0.0,0.0,75,0.00,,---,0.00,VWS V14.01,2013-04-09 07:08:00,
2013-04-09 03:09:00,59.7,52.5,30.36,SSE,163,0.0,0.0,77,0.00,,---,0.00,VWS V14.01,2013-04-09 07:09:00,
2013-04-09 03:10:00,59.7,52.5,30.36,South,184,0.0,0.0,77,0.00,,---,0.00,VWS V14.01,2013-04-09 07:10:00,
2013-04-09 03:13:00,59.7,52.5,30.36,South,175,6.3,6.3,77,0.00,,---,0.00,VWS V14.01,2013-04-09 07:13:00,
2013-04-09 03:14:00,59.7,52.9,30.36,SSE,147,4.0,4.0,78,0.00,,---,0.00,VWS V14.01,2013-04-09 07:14:00,
2013-04-09 03:15:00,59.7,52.9,30.36,SSE,147,4.0,4.0,78,0.00,,---,0.00,VWS V14.01,2013-04-09 07:15:00,
2013-04-09 03:18:00,59.7,52.5,30.36,SSE,148,0.0,0.0,77,0.00,,---,0.00,VWS V14.01,2013-04-09 07:18:00,
2013-04-09 03:19:00,59.7,52.5,30.36,SE,135,0.0,0.0,77,0.00,,---,0.00,VWS V14.01,2013-04-09 07:19:00,
2013-04-09 03:20:00,59.7,52.5,30.36,SSE,167,0.0,0.0,77,0.00,,---,0.00,VWS V14.01,2013-04-09 07:20:00,
2013-04-09 03:23:00,59.7,52.5,30.36,South,177,3.6,3.6,77,0.00,,---,0.00,VWS V14.01,2013-04-09 07:23:00,
2013-04-09 03:24:00,59.7,52.5,30.36,South,188,0.0,0.0,77,0.00,,---,0.00,VWS V14.01,2013-04-09 07:24:00,
2013-04-09 03:25:00,59.7,52.5,30.36,SSE,150,0.0,0.0,77,0.00,,---,0.00,VWS V14.01,2013-04-09 07:25:00,
2013-04-09 03:28:00,59.9,52.7,30.36,SW,221,0.0,0.0,77,0.00,,---,0.00,VWS V14.01,2013-04-09 07:28:00,
2013-04-09 03:29:00,59.9,52.7,30.36,SW,221,0.0,0.0,77,0.00,,---,0.00,VWS V14.01,2013-04-09 07:29:00,
2013-04-09 03:30:00,59.9,52.7,30.36,SW,221,0.0,0.0,77,0.00,,---,0.00,VWS V14.01,2013-04-09 07:30:00,
2013-04-09 03:33:00,60.1,52.9,30.36,SW,220,0.0,0.0,77,0.00,,---,0.00,VWS V14.01,2013-04-09 07:33:00,
2013-04-09 03:34:00,59.9,52.7,30.36,SW,220,0.0,0.0,77,0.00,,---,0.00,VWS V14.01,2013-04-09 07:34:00,
2013-04-09 03:35:00,59.9,52.3,30.36,South,187,0.0,0.0,76,0.00,,---,0.00,VWS V14.01,2013-04-09 07:35:00,
2013-04-09 03:38:00,59.9,52.3,30.36,South,175,0.0,0.0,76,0.00,,---,0.00,VWS V14.01,2013-04-09 07:38:00,
2013-04-09 03:39:00,59.9,52.3,30.36,South,185,0.0,0.0,76,0.00,,---,0.00,VWS V14.01,2013-04-09 07:39:00,
2013-04-09 03:40:00,59.9,52.3,30.36,WSW,252,0.0,0.0,76,0.00,,---,0.00,VWS V14.01,2013-04-09 07:40:00,
2013-04-09 03:43:00,59.9,52.7,30.36,WSW,248,0.0,0.0,77,0.00,,---,0.00,VWS V14.01,2013-04-09 07:43:00,
2013-04-09 03:44:00,59.9,52.7,30.36,WSW,248,0.0,0.0,77,0.00,,---,0.00,VWS V14.01,2013-04-09 07:44:00,
2013-04-09 03:45:00,59.9,52.7,30.36,South,180,0.0,0.0,77,0.00,,---,0.00,VWS V14.01,2013-04-09 07:45:00,
2013-04-09 03:48:00,60.1,52.9,30.36,SW,236,2.7,2.7,77,0.00,,---,0.00,VWS V14.01,2013-04-09 07:48:00,
2013-04-09 03:49:00,60.1,52.9,30.36,South,179,0.0,2.7,77,0.00,,---,0.00,VWS V14.01,2013-04-09 07:49:00,
2013-04-09 03:50:00,60.1,52.9,30.36,SSE,149,3.1,3.1,77,0.00,,---,0.00,VWS V14.01,2013-04-09 07:50:00,
2013-04-09 03:53:00,60.1,52.9,30.36,South,188,0.0,0.0,77,0.00,,---,0.00,VWS V14.01,2013-04-09 07:53:00,
2013-04-09 03:55:00,60.1,52.9,30.36,South,173,3.6,3.6,77,0.00,,---,0.00,VWS V14.01,2013-04-09 07:55:00,
2013-04-09 03:58:00,60.1,52.9,30.36,SE,141,0.0,2.2,77,0.00,,---,0.00,VWS V14.01,2013-04-09 07:58:00,
2013-04-09 04:00:00,60.1,52.9,30.36,SSW,208,0.0,0.0,77,0.00,,---,0.00,VWS V14.01,2013-04-09 08:00:00,
2013-04-09 04:01:00,60.1,52.9,30.36,SSW,208,0.0,0.0,77,0.00,,---,0.00,VWS V14.01,2013-04-09 08:01:00,
2013-04-09 04:04:00,59.9,52.7,30.36,SE,139,4.9,4.9,77,0.00,,---,0.00,VWS V14.01,2013-04-09 08:04:00,
2013-04-09 04:05:00,59.9,52.7,30.36,SSE,163,2.7,2.7,77,0.00,,---,0.00,VWS V14.01,2013-04-09 08:05:00,
2013-04-09 04:06:00,59.9,52.7,30.36,SSE,163,2.7,2.7,77,0.00,,---,0.00,VWS V14.01,2013-04-09 08:06:00,
2013-04-09 04:09:00,59.9,52.7,30.36,East,85,0.0,0.0,77,0.00,,---,0.00,VWS V14.01,2013-04-09 08:09:00,
2013-04-09 04:10:00,59.9,52.7,30.36,NNE,16,0.0,0.0,77,0.00,,---,0.00,VWS V14.01,2013-04-09 08:10:00,
2013-04-09 04:11:00,59.9,52.7,30.36,NNE,16,0.0,0.0,77,0.00,,---,0.00,VWS V14.01,2013-04-09 08:11:00,
2013-04-09 04:14:00,59.9,52.7,30.36,South,187,0.0,0.0,77,0.00,,---,0.00,VWS V14.01,2013-04-09 08:14:00,
2013-04-09 04:15:00,59.9,52.7,30.36,South,186,0.0,0.0,77,0.00,,---,0.00,VWS V14.01,2013-04-09 08:15:00,
2013-04-09 04:16:00,59.9,52.7,30.36,SSW,192,0.0,0.0,77,0.00,,---,0.00,VWS V14.01,2013-04-09 08:16:00,
2013-04-09 04:19:00,59.9,52.7,30.36,South,188,0.0,0.0,77,0.00,,---,0.00,VWS V14.01,2013-04-09 08:19:00,
2013-04-09 04:20:00,59.9,52.7,30.36,South,180,0.0,0.0,77,0.00,,---,0.00,VWS V14.01,2013-04-09 08:20:00,
2013-04-09 04:21:00,59.9,52.7,30.36,South,180,0.0,0.0,77,0.00,,---,0.00,VWS V14.01,2013-04-09 08:21:00,
2013-04-09 04:24:00,59.9,52.7,30.36,SE,144,0.0,4.0,77,0.00,,---,0.00,VWS V14.01,2013-04-09 08:24:00,
2013-04-09 04:25:00,59.9,52.7,30.36,SE,144,0.0,0.0,77,0.00,,---,0.00,VWS V14.01,2013-04-09 08:25:00,
2013-04-09 04:27:00,59.7,52.5,30.36,SE,144,0.0,0.0,77,0.00,,---,0.00,VWS V14.01,2013-04-09 08:27:00,
2013-04-09 04:29:00,59.7,52.5,30.36,South,190,0.0,0.0,77,0.00,,---,0.00,VWS V14.01,2013-04-09 08:29:00,
2013-04-09 04:30:00,59.7,52.5,30.36,SE,125,0.0,0.0,77,0.00,,---,0.00,VWS V14.01,2013-04-09 08:30:00,
2013-04-09 04:32:00,59.7,52.5,30.36,SE,125,0.0,0.0,77,0.00,,---,0.00,VWS V14.01,2013-04-09 08:32:00,
2013-04-09 04:34:00,59.7,52.5,30.36,NNW,344,0.0,0.0,77,0.00,,---,0.00,VWS V14.01,2013-04-09 08:34:00,
2013-04-09 04:35:00,59.7,52.5,30.36,NNW,344,0.0,0.0,77,0.00,,---,0.00,VWS V14.01,2013-04-09 08:35:00,
2013-04-09 04:37:00,59.7,52.5,30.36,NNW,344,0.0,0.0,77,0.00,,---,0.00,VWS V14.01,2013-04-09 08:37:00,
2013-04-09 04:40:00,59.7,52.5,30.36,NE,49,0.0,0.0,77,0.00,,---,0.00,VWS V14.01,2013-04-09 08:40:00,
2013-04-09 04:42:00,59.5,52.3,30.36,NE,49,0.0,0.0,77,0.00,,---,0.00,VWS V14.01,2013-04-09 08:42:00,
2013-04-09 04:45:00,59.5,52.3,30.36,NE,49,0.0,0.0,77,0.00,,---,0.00,VWS V14.01,2013-04-09 08:45:00,
2013-04-09 04:46:00,59.5,52.3,30.36,NE,49,0.0,0.0,77,0.00,,---,0.00,VWS V14.01,2013-04-09 08:46:00,
2013-04-09 04:47:00,59.5,52.3,30.36,West,270,0.0,0.0,77,0.00,,---,0.00,VWS V14.01,2013-04-09 08:47:00,
2013-04-09 04:50:00,59.5,52.3,30.36,WNW,299,0.0,0.0,77,0.00,,---,0.00,VWS V14.01,2013-04-09 08:50:00,
2013-04-09 04:51:00,59.4,52.2,30.36,WNW,299,0.0,0.0,77,0.00,,---,0.00,VWS V14.01,2013-04-09 08:51:00,
2013-04-09 04:52:00,59.4,52.2,30.36,WNW,299,0.0,0.0,77,0.00,,---,0.00,VWS V14.01,2013-04-09 08:52:00,
2013-04-09 04:53:00,59.4,52.2,30.36,WNW,299,0.0,0.0,77,0.00,,---,0.00,VWS V14.01,2013-04-09 08:53:00,
2013-04-09 04:55:00,59.4,52.2,30.36,WNW,299,0.0,0.0,77,0.00,,---,0.00,VWS V14.01,2013-04-09 08:55:00,
2013-04-09 04:56:00,59.4,52.2,30.36,WNW,299,0.0,0.0,77,0.00,,---,0.00,VWS V14.01,2013-04-09 08:56:00,
2013-04-09 04:58:00,59.4,52.2,30.36,WNW,299,0.0,0.0,77,0.00,,---,0.00,VWS V14.01,2013-04-09 08:58:00,
2013-04-09 05:00:00,59.4,52.2,30.36,WNW,299,0.0,0.0,77,0.00,,---,0.00,VWS V14.01,2013-04-09 09:00:00,
2013-04-09 05:01:00,59.2,52.0,30.36,WNW,299,0.0,0.0,77,0.00,,---,0.00,VWS V14.01,2013-04-09 09:01:00,
2013-04-09 05:03:00,59.2,52.0,30.36,WNW,299,0.0,0.0,77,0.00,,---,0.00,VWS V14.01,2013-04-09 09:03:00,
2013-04-09 05:05:00,59.2,52.0,30.36,WNW,299,0.0,0.0,77,0.00,,---,0.00,VWS V14.01,2013-04-09 09:05:00,
2013-04-09 05:07:00,59.2,52.0,30.36,WNW,299,0.0,0.0,77,0.00,,---,0.00,VWS V14.01,2013-04-09 09:07:00,
2013-04-09 05:08:00,59.0,51.8,30.36,WNW,299,0.0,0.0,77,0.00,,---,0.00,VWS V14.01,2013-04-09 09:08:00,
2013-04-09 05:10:00,59.0,51.8,30.39,WNW,299,0.0,0.0,77,0.00,,---,0.00,VWS V14.01,2013-04-09 09:10:00,
2013-04-09 05:12:00,59.0,51.8,30.39,WNW,299,0.0,0.0,77,0.00,,---,0.00,VWS V14.01,2013-04-09 09:12:00,
2013-04-09 05:13:00,59.0,51.8,30.39,West,281,0.0,0.0,77,0.00,,---,0.00,VWS V14.01,2013-04-09 09:13:00,
2013-04-09 05:15:00,58.8,51.6,30.39,West,281,0.0,0.0,77,0.00,,---,0.00,VWS V14.01,2013-04-09 09:15:00,
2013-04-09 05:17:00,58.8,51.6,30.39,West,281,0.0,0.0,77,0.00,,---,0.00,VWS V14.01,2013-04-09 09:17:00,
2013-04-09 05:18:00,58.8,52.0,30.39,West,281,0.0,0.0,78,0.00,,---,0.00,VWS V14.01,2013-04-09 09:18:00,
2013-04-09 05:20:00,58.8,52.0,30.39,SW,222,0.0,0.0,78,0.00,,---,0.00,VWS V14.01,2013-04-09 09:20:00,
2013-04-09 05:22:00,58.8,52.0,30.39,SW,222,0.0,0.0,78,0.00,,---,0.00,VWS V14.01,2013-04-09 09:22:00,
2013-04-09 05:23:00,58.8,52.0,30.39,SW,222,0.0,0.0,78,0.00,,---,0.00,VWS V14.01,2013-04-09 09:23:00,
2013-04-09 05:25:00,58.8,52.0,30.39,SW,222,0.0,0.0,78,0.00,,---,0.00,VWS V14.01,2013-04-09 09:25:00,
2013-04-09 05:27:00,58.6,51.8,30.39,SW,222,0.0,0.0,78,0.00,,---,0.00,VWS V14.01,2013-04-09 09:27:00,
2013-04-09 05:28:00,58.6,51.8,30.39,SW,222,0.0,0.0,78,0.00,,---,0.00,VWS V14.01,2013-04-09 09:28:00,
2013-04-09 05:31:00,58.6,51.8,30.39,WSW,246,0.0,0.0,78,0.00,,---,0.00,VWS V14.01,2013-04-09 09:31:00,
2013-04-09 05:32:00,58.6,51.8,30.39,SW,223,0.0,0.0,78,0.00,,---,0.00,VWS V14.01,2013-04-09 09:32:00,
2013-04-09 05:33:00,58.6,51.8,30.39,SW,223,0.0,0.0,78,0.00,,---,0.00,VWS V14.01,2013-04-09 09:33:00,
2013-04-09 05:36:00,58.6,51.8,30.39,SW,223,0.0,0.0,78,0.00,,---,0.00,VWS V14.01,2013-04-09 09:36:00,
2013-04-09 05:37:00,58.6,51.8,30.39,SW,232,0.0,0.0,78,0.00,,---,0.00,VWS V14.01,2013-04-09 09:37:00,
2013-04-09 05:38:00,58.6,51.8,30.39,SW,232,0.0,0.0,78,0.00,,---,0.00,VWS V14.01,2013-04-09 09:38:00,
2013-04-09 05:41:00,58.6,51.8,30.39,SW,232,0.0,0.0,78,0.00,,---,0.00,VWS V14.01,2013-04-09 09:41:00,
2013-04-09 05:42:00,58.6,51.8,30.39,SW,232,0.0,0.0,78,0.00,,---,0.00,VWS V14.01,2013-04-09 09:42:00,
2013-04-09 05:43:00,58.6,51.8,30.39,SW,232,0.0,0.0,78,0.00,,---,0.00,VWS V14.01,2013-04-09 09:43:00,
2013-04-09 05:46:00,58.6,51.8,30.39,SW,232,0.0,0.0,78,0.00,,---,0.00,VWS V14.01,2013-04-09 09:46:00,
2013-04-09 05:47:00,58.6,51.8,30.39,SW,232,0.0,0.0,78,0.00,,---,0.00,VWS V14.01,2013-04-09 09:47:00,
2013-04-09 05:48:00,58.6,51.8,30.39,SW,232,0.0,0.0,78,0.00,,---,0.00,VWS V14.01,2013-04-09 09:48:00,
2013-04-09 05:51:00,58.6,51.8,30.39,SW,232,0.0,0.0,78,0.00,,---,0.00,VWS V14.01,2013-04-09 09:51:00,
2013-04-09 05:52:00,58.6,52.2,30.39,SW,232,0.0,0.0,79,0.00,,---,0.00,VWS V14.01,2013-04-09 09:52:00,
2013-04-09 05:53:00,58.6,52.2,30.39,SW,232,0.0,0.0,79,0.00,,---,0.00,VWS V14.01,2013-04-09 09:53:00,
2013-04-09 05:56:00,58.6,52.2,30.39,SW,232,0.0,0.0,79,0.00,,---,0.00,VWS V14.01,2013-04-09 09:56:00,
2013-04-09 05:57:00,58.6,52.2,30.39,WNW,303,0.0,0.0,79,0.00,,---,0.00,VWS V14.01,2013-04-09 09:57:00,
2013-04-09 05:58:00,58.6,52.2,30.39,WNW,303,0.0,0.0,79,0.00,,---,0.00,VWS V14.01,2013-04-09 09:58:00,
2013-04-09 05:59:00,58.6,52.2,30.39,SW,223,0.0,0.0,79,0.00,,---,0.00,VWS V14.01,2013-04-09 09:59:00,
2013-04-09 06:02:00,58.6,52.2,30.39,SW,223,0.0,0.0,79,0.00,,---,0.00,VWS V14.01,2013-04-09 10:02:00,
2013-04-09 06:03:00,58.6,52.2,30.39,SW,223,0.0,0.0,79,0.00,,---,0.00,VWS V14.01,2013-04-09 10:03:00,
2013-04-09 06:04:00,58.6,52.2,30.39,SW,223,0.0,0.0,79,0.00,,---,0.00,VWS V14.01,2013-04-09 10:04:00,
2013-04-09 06:07:00,58.6,52.2,30.39,SW,223,0.0,0.0,79,0.00,,---,0.00,VWS V14.01,2013-04-09 10:07:00,
2013-04-09 06:08:00,58.6,52.2,30.39,SW,223,0.0,0.0,79,0.00,,---,0.00,VWS V14.01,2013-04-09 10:08:00,
2013-04-09 06:09:00,58.6,52.2,30.39,SW,223,0.0,0.0,79,0.00,,---,0.00,VWS V14.01,2013-04-09 10:09:00,
2013-04-09 06:12:00,58.6,52.2,30.39,SW,223,0.0,0.0,79,0.00,,---,0.00,VWS V14.01,2013-04-09 10:12:00,
2013-04-09 06:13:00,58.6,52.2,30.39,SW,223,0.0,0.0,79,0.00,,---,0.00,VWS V14.01,2013-04-09 10:13:00,
2013-04-09 06:14:00,58.6,52.2,30.39,SW,223,0.0,0.0,79,0.00,,---,0.00,VWS V14.01,2013-04-09 10:14:00,
2013-04-09 06:17:00,58.6,52.2,30.39,SW,223,0.0,0.0,79,0.00,,---,0.00,VWS V14.01,2013-04-09 10:17:00,
2013-04-09 06:18:00,58.6,52.2,30.39,SW,223,0.0,0.0,79,0.00,,---,0.00,VWS V14.01,2013-04-09 10:18:00,
2013-04-09 06:19:00,58.5,52.0,30.39,SW,223,0.0,0.0,79,0.00,,---,0.00,VWS V14.01,2013-04-09 10:19:00,
2013-04-09 06:22:00,58.5,52.0,30.39,SW,223,0.0,0.0,79,0.00,,---,0.00,VWS V14.01,2013-04-09 10:22:00,
2013-04-09 06:23:00,58.5,52.0,30.39,SW,223,0.0,0.0,79,0.00,,---,0.00,VWS V14.01,2013-04-09 10:23:00,
2013-04-09 06:24:00,58.5,52.0,30.39,SW,223,0.0,0.0,79,0.00,,---,0.00,VWS V14.01,2013-04-09 10:24:00,
2013-04-09 06:25:00,58.5,52.0,30.39,SW,223,0.0,0.0,79,0.00,,---,0.00,VWS V14.01,2013-04-09 10:25:00,
2013-04-09 06:27:00,58.5,52.3,30.39,SW,223,0.0,0.0,80,0.00,,---,0.00,VWS V14.01,2013-04-09 10:27:00,
2013-04-09 06:28:00,58.5,52.0,30.39,SW,223,0.0,0.0,79,0.00,,---,0.00,VWS V14.01,2013-04-09 10:28:00,
2013-04-09 06:29:00,58.5,52.0,30.39,SW,223,0.0,0.0,79,0.00,,---,0.00,VWS V14.01,2013-04-09 10:29:00,
2013-04-09 06:30:00,58.5,52.0,30.39,SW,223,0.0,0.0,79,0.00,,---,0.00,VWS V14.01,2013-04-09 10:30:00,
2013-04-09 06:32:00,58.5,52.0,30.39,SW,223,0.0,0.0,79,0.00,,---,0.00,VWS V14.01,2013-04-09 10:32:00,
2013-04-09 06:34:00,58.5,52.3,30.39,SW,223,0.0,0.0,80,0.00,,---,0.00,VWS V14.01,2013-04-09 10:34:00,
2013-04-09 06:35:00,58.5,52.3,30.39,SW,223,0.0,0.0,80,0.00,,---,0.00,VWS V14.01,2013-04-09 10:35:00,
2013-04-09 06:38:00,58.5,52.3,30.39,SW,223,0.0,0.0,80,0.00,,---,0.00,VWS V14.01,2013-04-09 10:38:00,
2013-04-09 06:39:00,58.5,52.3,30.39,SW,223,0.0,0.0,80,0.00,,---,0.00,VWS V14.01,2013-04-09 10:39:00,
2013-04-09 06:40:00,58.3,51.8,30.39,SW,223,0.0,0.0,79,0.00,,---,0.00,VWS V14.01,2013-04-09 10:40:00,
2013-04-09 06:43:00,58.3,51.8,30.39,SW,223,0.0,0.0,79,0.00,,---,0.00,VWS V14.01,2013-04-09 10:43:00,
2013-04-09 06:44:00,58.3,51.8,30.39,SW,223,0.0,0.0,79,0.00,,---,0.00,VWS V14.01,2013-04-09 10:44:00,
2013-04-09 06:45:00,58.1,51.6,30.39,SW,223,0.0,0.0,79,0.00,,---,0.00,VWS V14.01,2013-04-09 10:45:00,
2013-04-09 06:48:00,58.1,51.6,30.39,SW,223,0.0,0.0,79,0.00,,---,0.00,VWS V14.01,2013-04-09 10:48:00,
2013-04-09 06:49:00,58.1,52.0,30.39,SW,223,0.0,0.0,80,0.00,,---,0.00,VWS V14.01,2013-04-09 10:49:00,
2013-04-09 06:50:00,58.1,52.0,30.39,SW,223,0.0,0.0,80,0.00,,---,0.00,VWS V14.01,2013-04-09 10:50:00,
2013-04-09 06:53:00,58.1,52.0,30.42,SW,223,0.0,0.0,80,0.00,,---,0.00,VWS V14.01,2013-04-09 10:53:00,
2013-04-09 06:55:00,58.1,52.0,30.42,SW,223,0.0,0.0,80,0.00,,---,0.00,VWS V14.01,2013-04-09 10:55:00,
2013-04-09 06:58:00,58.1,52.0,30.42,SW,223,0.0,0.0,80,0.00,,---,0.00,VWS V14.01,2013-04-09 10:58:00,
2013-04-09 07:00:00,58.1,52.3,30.42,SW,223,0.0,0.0,81,0.00,,---,0.00,VWS V14.01,2013-04-09 11:00:00,
2013-04-09 07:03:00,58.1,52.3,30.42,SW,223,0.0,0.0,81,0.00,,---,0.00,VWS V14.01,2013-04-09 11:03:00,
2013-04-09 07:05:00,58.1,52.3,30.42,SW,223,0.0,0.0,81,0.00,,---,0.00,VWS V14.01,2013-04-09 11:05:00,
2013-04-09 07:08:00,58.1,52.3,30.39,SW,223,0.0,0.0,81,0.00,,---,0.00,VWS V14.01,2013-04-09 11:08:00,
2013-04-09 07:10:00,58.1,52.3,30.39,SW,223,0.0,0.0,81,0.00,,---,0.00,VWS V14.01,2013-04-09 11:10:00,
2013-04-09 07:13:00,58.1,52.6,30.39,SSW,205,0.0,0.0,82,0.00,,---,0.00,VWS V14.01,2013-04-09 11:13:00,
2013-04-09 07:15:00,58.1,52.6,30.39,SSW,205,0.0,0.0,82,0.00,,---,0.00,VWS V14.01,2013-04-09 11:15:00,
2013-04-09 07:18:00,57.9,52.1,30.39,SSW,205,0.0,0.0,81,0.00,,---,0.00,VWS V14.01,2013-04-09 11:18:00,
2013-04-09 07:20:00,57.9,52.1,30.39,SSW,205,0.0,0.0,81,0.00,,---,0.00,VWS V14.01,2013-04-09 11:20:00,
2013-04-09 07:23:00,57.9,52.1,30.42,SSW,205,0.0,0.0,81,0.00,,---,0.00,VWS V14.01,2013-04-09 11:23:00,
2013-04-09 07:25:00,57.9,52.5,30.42,SSW,205,0.0,0.0,82,0.00,,---,0.00,VWS V14.01,2013-04-09 11:25:00,
2013-04-09 07:28:00,57.9,52.5,30.42,SSW,205,0.0,0.0,82,0.00,,---,0.00,VWS V14.01,2013-04-09 11:28:00,
2013-04-09 07:30:00,58.1,52.6,30.42,SSW,205,0.0,0.0,82,0.00,,---,0.00,VWS V14.01,2013-04-09 11:30:00,
2013-04-09 07:33:00,58.3,53.2,30.42,SSW,194,0.0,0.0,83,0.00,,---,0.00,VWS V14.01,2013-04-09 11:33:00,
2013-04-09 07:35:00,58.3,53.2,30.42,SSW,194,0.0,0.0,83,0.00,,---,0.00,VWS V14.01,2013-04-09 11:35:00,
2013-04-09 07:38:00,58.5,53.3,30.42,SSW,194,0.0,0.0,83,0.00,,---,0.00,VWS V14.01,2013-04-09 11:38:00,
2013-04-09 07:40:00,58.5,53.3,30.42,SSW,200,0.0,0.0,83,0.00,,---,0.00,VWS V14.01,2013-04-09 11:40:00,
2013-04-09 07:42:00,58.5,53.3,30.42,SSW,200,0.0,0.0,83,0.00,,---,0.00,VWS V14.01,2013-04-09 11:42:00,
2013-04-09 07:43:00,58.6,53.5,30.42,SSW,200,0.0,0.0,83,0.00,,---,0.00,VWS V14.01,2013-04-09 11:43:00,
2013-04-09 07:45:00,58.6,53.5,30.42,WNW,282,0.0,0.0,83,0.00,,---,0.00,VWS V14.01,2013-04-09 11:45:00,
2013-04-09 07:47:00,58.8,53.7,30.42,West,267,0.0,0.0,83,0.00,,---,0.00,VWS V14.01,2013-04-09 11:47:00,
2013-04-09 07:48:00,59.0,53.8,30.42,West,267,0.0,0.0,83,0.00,,---,0.00,VWS V14.01,2013-04-09 11:48:00,
2013-04-09 07:50:00,59.0,53.8,30.42,SW,220,0.0,0.0,83,0.00,,---,0.00,VWS V14.01,2013-04-09 11:50:00,
2013-04-09 07:52:00,59.4,54.5,30.42,SW,220,0.0,0.0,84,0.00,,---,0.00,VWS V14.01,2013-04-09 11:52:00,
2013-04-09 07:53:00,59.5,54.7,30.42,SW,220,0.0,0.0,84,0.00,,---,0.00,VWS V14.01,2013-04-09 11:53:00,
2013-04-09 07:55:00,59.5,54.7,30.42,SW,219,0.0,0.0,84,0.00,,---,0.00,VWS V14.01,2013-04-09 11:55:00,
2013-04-09 07:57:00,59.9,55.1,30.42,WNW,299,0.0,0.0,84,0.00,,---,0.00,VWS V14.01,2013-04-09 11:57:00,
2013-04-09 07:58:00,59.9,55.1,30.42,WNW,300,0.0,0.0,84,0.00,,---,0.00,VWS V14.01,2013-04-09 11:58:00,
2013-04-09 08:00:00,60.3,55.4,30.42,NNW,329,0.0,0.0,84,0.00,,---,0.00,VWS V14.01,2013-04-09 12:00:00,
2013-04-09 08:02:00,60.3,55.4,30.42,NW,304,0.0,0.0,84,0.00,,---,0.00,VWS V14.01,2013-04-09 12:02:00,
2013-04-09 08:03:00,60.3,55.4,30.42,NW,304,0.0,0.0,84,0.00,,---,0.00,VWS V14.01,2013-04-09 12:03:00,
2013-04-09 08:04:00,60.4,55.6,30.42,SSW,205,0.0,0.0,84,0.00,,---,0.00,VWS V14.01,2013-04-09 12:04:00,
2013-04-09 08:05:00,60.4,55.6,30.42,ENE,74,0.0,0.0,84,0.00,,---,0.00,VWS V14.01,2013-04-09 12:05:00,
2013-04-09 08:07:00,60.4,55.6,30.42,SW,223,0.0,0.0,84,0.00,,---,0.00,VWS V14.01,2013-04-09 12:07:00,
2013-04-09 08:08:00,60.4,55.6,30.42,SW,223,0.0,0.0,84,0.00,,---,0.00,VWS V14.01,2013-04-09 12:08:00,
2013-04-09 08:09:00,60.4,55.6,30.42,SW,223,0.0,0.0,84,0.00,,---,0.00,VWS V14.01,2013-04-09 12:09:00,
2013-04-09 08:10:00,60.4,55.6,30.42,SSW,206,0.0,0.0,84,0.00,,---,0.00,VWS V14.01,2013-04-09 12:10:00,
2013-04-09 08:12:00,60.4,55.6,30.42,SW,220,0.0,0.0,84,0.00,,---,0.00,VWS V14.01,2013-04-09 12:12:00,
2013-04-09 08:13:00,60.4,55.6,30.42,NNE,24,0.0,0.0,84,0.00,,---,0.00,VWS V14.01,2013-04-09 12:13:00,
2013-04-09 08:14:00,60.4,55.6,30.42,North,353,0.0,0.0,84,0.00,,---,0.00,VWS V14.01,2013-04-09 12:14:00,
2013-04-09 08:15:00,61.7,57.2,30.42,North,353,0.0,0.0,85,0.00,,---,0.00,VWS V14.01,2013-04-09 12:15:00,
2013-04-09 08:17:00,61.7,57.2,30.42,North,353,0.0,0.0,85,0.00,,---,0.00,VWS V14.01,2013-04-09 12:17:00,
2013-04-09 08:18:00,61.9,57.7,30.42,North,353,0.0,0.0,86,0.00,,---,0.00,VWS V14.01,2013-04-09 12:18:00,
2013-04-09 08:19:00,62.2,58.0,30.42,North,353,0.0,0.0,86,0.00,,---,0.00,VWS V14.01,2013-04-09 12:19:00,
2013-04-09 08:21:00,62.2,58.0,30.42,South,172,0.0,0.0,86,0.00,,---,0.00,VWS V14.01,2013-04-09 12:21:00,
2013-04-09 08:22:00,62.2,58.0,30.42,South,176,0.0,0.0,86,0.00,,---,0.00,VWS V14.01,2013-04-09 12:22:00,
2013-04-09 08:23:00,62.2,58.0,30.42,South,176,0.0,0.0,86,0.00,,---,0.00,VWS V14.01,2013-04-09 12:23:00,
2013-04-09 08:24:00,62.6,58.0,30.42,West,272,2.2,2.2,85,0.00,,---,0.00,VWS V14.01,2013-04-09 12:24:00,
2013-04-09 08:26:00,63.0,58.4,30.42,East,100,0.0,2.2,85,0.00,,---,0.00,VWS V14.01,2013-04-09 12:26:00,
2013-04-09 08:28:00,63.1,58.6,30.42,SSE,159,0.0,0.0,85,0.00,,---,0.00,VWS V14.01,2013-04-09 12:28:00,
2013-04-09 08:29:00,63.1,58.6,30.42,SSE,156,0.0,2.2,85,0.00,,---,0.00,VWS V14.01,2013-04-09 12:29:00,
2013-04-09 08:31:00,63.3,58.7,30.42,SSE,165,0.0,2.7,85,0.00,,---,0.00,VWS V14.01,2013-04-09 12:31:00,
2013-04-09 08:33:00,63.5,58.6,30.42,SSW,206,0.0,0.0,84,0.00,,---,0.00,VWS V14.01,2013-04-09 12:33:00,
2013-04-09 08:34:00,63.5,58.6,30.42,SW,218,0.0,0.0,84,0.00,,---,0.00,VWS V14.01,2013-04-09 12:34:00,
2013-04-09 08:35:00,63.9,58.9,30.42,SE,124,0.0,0.0,84,0.00,,---,0.00,VWS V14.01,2013-04-09 12:35:00,
2013-04-09 08:36:00,63.9,58.6,30.42,SSW,193,2.7,2.7,83,0.00,,---,0.00,VWS V14.01,2013-04-09 12:36:00,
2013-04-09 08:38:00,63.9,58.6,30.42,SSE,163,2.7,2.7,83,0.00,,---,0.00,VWS V14.01,2013-04-09 12:38:00,
2013-04-09 08:39:00,63.9,58.6,30.42,South,177,2.7,2.7,83,0.00,,---,0.00,VWS V14.01,2013-04-09 12:39:00,
2013-04-09 08:40:00,63.9,58.6,30.42,SW,217,0.0,2.7,83,0.00,,---,0.00,VWS V14.01,2013-04-09 12:40:00,
2013-04-09 08:41:00,63.9,58.6,30.42,SW,217,0.0,0.0,83,0.00,,---,0.00,VWS V14.01,2013-04-09 12:41:00,
2013-04-09 08:43:00,64.4,57.8,30.42,South,184,0.0,0.0,79,0.00,,---,0.00,VWS V14.01,2013-04-09 12:43:00,
2013-04-09 08:44:00,64.4,57.8,30.42,SW,221,4.0,4.0,79,0.00,,---,0.00,VWS V14.01,2013-04-09 12:44:00,
2013-04-09 08:45:00,64.4,57.8,30.42,SW,221,4.0,4.0,79,0.00,,---,0.00,VWS V14.01,2013-04-09 12:45:00,
2013-04-09 08:46:00,64.8,55.5,30.42,SW,221,4.0,4.0,72,0.00,,---,0.00,VWS V14.01,2013-04-09 12:46:00,
2013-04-09 08:48:00,64.9,54.9,30.42,SSE,164,2.7,2.7,70,0.00,,---,0.00,VWS V14.01,2013-04-09 12:48:00,
2013-04-09 08:49:00,65.1,54.7,30.42,SW,214,0.0,2.7,69,0.00,,---,0.00,VWS V14.01,2013-04-09 12:49:00,
2013-04-09 08:50:00,65.1,54.3,30.42,SW,214,0.0,2.7,68,0.00,,---,0.00,VWS V14.01,2013-04-09 12:50:00,
2013-04-09 08:51:00,65.1,53.9,30.42,SW,231,0.0,0.0,67,0.00,,---,0.00,VWS V14.01,2013-04-09 12:51:00,
2013-04-09 08:53:00,65.1,53.9,30.42,West,267,3.6,3.6,67,0.00,,---,0.00,VWS V14.01,2013-04-09 12:53:00,
2013-04-09 08:54:00,65.5,52.6,30.42,SSE,160,2.7,3.6,63,0.00,,---,0.00,VWS V14.01,2013-04-09 12:54:00,
2013-04-09 08:55:00,65.5,52.6,30.42,SSE,160,2.7,2.7,63,0.00,,---,0.00,VWS V14.01,2013-04-09 12:55:00,
2013-04-09 08:57:00,65.7,51.9,30.42,SSW,197,2.7,2.7,61,0.00,,---,0.00,VWS V14.01,2013-04-09 12:57:00,
2013-04-09 08:59:00,65.7,51.9,30.42,SW,216,0.0,0.0,61,0.00,,---,0.00,VWS V14.01,2013-04-09 12:59:00,
2013-04-09 09:00:00,65.8,51.1,30.42,NW,309,3.6,3.6,59,0.00,,---,0.00,VWS V14.01,2013-04-09 13:00:00,
2013-04-09 09:02:00,66.0,50.8,30.42,SSE,168,0.0,0.0,58,0.00,,---,0.00,VWS V14.01,2013-04-09 13:02:00,
2013-04-09 09:04:00,66.4,50.2,30.42,WSW,246,5.4,5.4,56,0.00,,---,0.00,VWS V14.01,2013-04-09 13:04:00,
2013-04-09 09:05:00,66.4,50.2,30.42,WSW,246,5.4,5.4,56,0.00,,---,0.00,VWS V14.01,2013-04-09 13:05:00,
2013-04-09 09:06:00,66.4,49.2,30.42,WSW,246,5.4,5.4,54,0.00,,---,0.00,VWS V14.01,2013-04-09 13:06:00,
2013-04-09 09:07:00,66.6,49.4,30.42,WSW,246,5.4,5.4,54,0.00,,---,0.00,VWS V14.01,2013-04-09 13:07:00,
2013-04-09 09:09:00,66.7,49.1,30.42,SSW,196,2.7,2.7,53,0.00,,---,0.00,VWS V14.01,2013-04-09 13:09:00,
2013-04-09 09:10:00,66.7,49.1,30.42,South,177,3.6,3.6,53,0.00,,---,0.00,VWS V14.01,2013-04-09 13:10:00,
2013-04-09 09:11:00,66.7,49.1,30.42,SSW,197,2.2,3.6,53,0.00,,---,0.00,VWS V14.01,2013-04-09 13:11:00,
2013-04-09 09:12:00,66.7,49.1,30.42,South,174,0.0,0.0,53,0.00,,---,0.00,VWS V14.01,2013-04-09 13:12:00,
2013-04-09 09:14:00,67.1,48.4,30.42,SSE,149,0.0,0.0,51,0.00,,---,0.00,VWS V14.01,2013-04-09 13:14:00,
2013-04-09 09:15:00,67.1,48.4,30.42,East,86,3.6,3.6,51,0.00,,---,0.00,VWS V14.01,2013-04-09 13:15:00,
2013-04-09 09:16:00,67.3,48.0,30.42,SW,214,0.0,3.6,50,0.00,,---,0.00,VWS V14.01,2013-04-09 13:16:00,
2013-04-09 09:17:00,67.3,48.0,30.42,ENE,67,2.7,2.7,50,0.00,,---,0.00,VWS V14.01,2013-04-09 13:17:00,
2013-04-09 09:19:00,67.3,48.0,30.42,SSE,168,0.0,0.0,50,0.00,,---,0.00,VWS V14.01,2013-04-09 13:19:00,
2013-04-09 09:20:00,67.5,47.7,30.42,SW,236,0.0,0.0,49,0.00,,---,0.00,VWS V14.01,2013-04-09 13:20:00,
2013-04-09 09:21:00,67.5,47.7,30.42,SW,236,0.0,0.0,49,0.00,,---,0.00,VWS V14.01,2013-04-09 13:21:00,
2013-04-09 09:22:00,67.5,47.7,30.42,SW,236,0.0,0.0,49,0.00,,---,0.00,VWS V14.01,2013-04-09 13:22:00,
2013-04-09 09:24:00,67.6,47.8,30.42,SSE,160,2.7,2.7,49,0.00,,---,0.00,VWS V14.01,2013-04-09 13:24:00,
2013-04-09 09:25:00,67.6,47.8,30.42,SSE,160,2.7,2.7,49,0.00,,---,0.00,VWS V14.01,2013-04-09 13:25:00,
2013-04-09 09:26:00,67.6,47.8,30.42,SSE,160,2.7,2.7,49,0.00,,---,0.00,VWS V14.01,2013-04-09 13:26:00,
2013-04-09 09:27:00,67.8,48.0,30.42,NW,317,0.0,2.7,49,0.00,,---,0.00,VWS V14.01,2013-04-09 13:27:00,
2013-04-09 09:29:00,67.8,48.0,30.42,SW,221,0.0,0.0,49,0.00,,---,0.00,VWS V14.01,2013-04-09 13:29:00,
2013-04-09 09:31:00,68.2,47.2,30.42,SSW,199,2.2,2.2,47,0.00,,---,0.00,VWS V14.01,2013-04-09 13:31:00,
2013-04-09 09:33:00,68.4,47.4,30.42,SSW,202,2.7,2.7,47,0.00,,---,0.00,VWS V14.01,2013-04-09 13:33:00,
2013-04-09 09:34:00,68.5,47.5,30.42,SSW,204,0.0,3.1,47,0.00,,---,0.00,VWS V14.01,2013-04-09 13:34:00,
2013-04-09 09:36:00,68.5,47.5,30.42,SSW,203,0.0,3.1,47,0.00,,---,0.00,VWS V14.01,2013-04-09 13:36:00,
2013-04-09 09:38:00,68.7,47.7,30.42,SW,216,3.1,3.1,47,0.00,,---,0.00,VWS V14.01,2013-04-09 13:38:00,
2013-04-09 09:39:00,68.7,47.7,30.42,SW,224,3.1,3.1,47,0.00,,---,0.00,VWS V14.01,2013-04-09 13:39:00,
2013-04-09 09:41:00,69.1,46.9,30.42,SW,235,3.1,3.1,45,0.00,,---,0.00,VWS V14.01,2013-04-09 13:41:00,
2013-04-09 09:42:00,69.1,46.9,30.42,SW,235,3.1,3.1,45,0.00,,---,0.00,VWS V14.01,2013-04-09 13:42:00,
2013-04-09 09:43:00,69.1,46.9,30.42,WSW,241,0.0,3.1,45,0.00,,---,0.00,VWS V14.01,2013-04-09 13:43:00,
2013-04-09 09:45:00,69.1,46.9,30.42,SW,232,2.7,3.1,45,0.00,,---,0.00,VWS V14.01,2013-04-09 13:45:00,
2013-04-09 09:47:00,69.1,46.9,30.42,West,267,0.0,3.1,45,0.00,,---,0.00,VWS V14.01,2013-04-09 13:47:00,
2013-04-09 09:48:00,69.1,46.9,30.42,WSW,248,3.6,3.6,45,0.00,,---,0.00,VWS V14.01,2013-04-09 13:48:00,
2013-04-09 09:50:00,69.4,47.2,30.42,West,277,0.0,3.1,45,0.00,,---,0.00,VWS V14.01,2013-04-09 13:50:00,
2013-04-09 09:52:00,69.4,47.2,30.42,SW,231,2.2,2.7,45,0.00,,---,0.00,VWS V14.01,2013-04-09 13:52:00,
2013-04-09 09:53:00,69.6,46.8,30.42,SW,231,2.2,2.2,44,0.00,,---,0.00,VWS V14.01,2013-04-09 13:53:00,
2013-04-09 09:55:00,69.6,46.2,30.42,SW,221,0.0,0.0,43,0.00,,---,0.00,VWS V14.01,2013-04-09 13:55:00,
2013-04-09 09:57:00,69.4,46.0,30.42,SW,230,3.1,3.1,43,0.00,,---,0.00,VWS V14.01,2013-04-09 13:57:00,
2013-04-09 09:58:00,69.4,46.0,30.42,SW,230,3.1,3.1,43,0.00,,---,0.00,VWS V14.01,2013-04-09 13:58:00,
2013-04-09 10:00:00,69.4,46.0,30.42,SW,222,3.6,3.6,43,0.00,,---,0.00,VWS V14.01,2013-04-09 14:00:00,
2013-04-09 10:02:00,69.4,46.6,30.42,SSW,192,0.0,0.0,44,0.00,,---,0.00,VWS V14.01,2013-04-09 14:02:00,
2013-04-09 10:03:00,69.6,46.8,30.45,SE,129,5.4,5.4,44,0.00,,---,0.00,VWS V14.01,2013-04-09 14:03:00,
2013-04-09 10:05:00,69.6,46.8,30.45,SW,234,0.0,5.4,44,0.00,,---,0.00,VWS V14.01,2013-04-09 14:05:00,
2013-04-09 10:07:00,69.8,46.3,30.45,SSE,147,0.0,4.0,43,0.00,,---,0.00,VWS V14.01,2013-04-09 14:07:00,
2013-04-09 10:08:00,69.8,46.3,30.45,SSE,147,0.0,4.0,43,0.00,,---,0.00,VWS V14.01,2013-04-09 14:08:00,
2013-04-09 10:10:00,69.8,46.3,30.45,SSW,203,4.0,4.0,43,0.00,,---,0.00,VWS V14.01,2013-04-09 14:10:00,
2013-04-09 10:12:00,69.8,46.3,30.45,SSW,212,2.7,2.7,43,0.00,,---,0.00,VWS V14.01,2013-04-09 14:12:00,
2013-04-09 10:13:00,69.8,46.3,30.45,SSW,212,2.7,2.7,43,0.00,,---,0.00,VWS V14.01,2013-04-09 14:13:00,
2013-04-09 10:16:00,70.0,46.5,30.45,NNW,328,4.0,4.0,43,0.00,,---,0.00,VWS V14.01,2013-04-09 14:16:00,
2013-04-09 10:18:00,70.2,46.6,30.45,South,179,2.7,3.1,43,0.00,,---,0.00,VWS V14.01,2013-04-09 14:18:00,
2013-04-09 10:19:00,70.2,46.6,30.45,SSE,147,6.3,6.3,43,0.00,,---,0.00,VWS V14.01,2013-04-09 14:19:00,
2013-04-09 10:21:00,70.3,46.8,30.45,SSE,149,0.0,0.0,43,0.00,,---,0.00,VWS V14.01,2013-04-09 14:21:00,
2013-04-09 10:23:00,70.3,46.8,30.45,South,170,4.5,4.5,43,0.00,,---,0.00,VWS V14.01,2013-04-09 14:23:00,
2013-04-09 10:24:00,70.5,47.0,30.45,SSW,198,2.2,5.4,43,0.00,,---,0.00,VWS V14.01,2013-04-09 14:24:00,
2013-04-09 10:27:00,70.5,47.0,30.45,SSE,156,5.8,5.8,43,0.00,,---,0.00,VWS V14.01,2013-04-09 14:27:00,
2013-04-09 10:28:00,70.5,47.0,30.45,WSW,242,2.7,5.8,43,0.00,,---,0.00,VWS V14.01,2013-04-09 14:28:00,
2013-04-09 10:29:00,70.7,46.5,30.45,NNW,340,2.7,4.0,42,0.00,,---,0.00,VWS V14.01,2013-04-09 14:29:00,
2013-04-09 10:32:00,70.9,46.7,30.45,South,181,2.7,3.6,42,0.00,,---,0.00,VWS V14.01,2013-04-09 14:32:00,
2013-04-09 10:33:00,70.9,46.7,30.45,SE,138,2.2,2.7,42,0.00,,---,0.00,VWS V14.01,2013-04-09 14:33:00,
2013-04-09 10:35:00,71.1,47.5,30.45,SW,223,2.7,2.7,43,0.00,,---,0.00,VWS V14.01,2013-04-09 14:35:00,
2013-04-09 10:37:00,71.2,47.6,30.45,SSW,200,3.1,3.1,43,0.00,,---,0.00,VWS V14.01,2013-04-09 14:37:00,
2013-04-09 10:38:00,71.2,47.6,30.45,WSW,248,2.7,4.0,43,0.00,,---,0.00,VWS V14.01,2013-04-09 14:38:00,
2013-04-09 10:40:00,71.4,47.2,30.45,SSW,200,4.0,4.0,42,0.00,,---,0.00,VWS V14.01,2013-04-09 14:40:00,
2013-04-09 10:42:00,71.4,47.2,30.45,South,188,4.0,4.0,42,0.00,,---,0.00,VWS V14.01,2013-04-09 14:42:00,
2013-04-09 10:43:00,71.4,47.2,30.45,South,187,2.7,3.6,42,0.00,,---,0.00,VWS V14.01,2013-04-09 14:43:00,
2013-04-09 10:45:00,72.1,47.2,30.45,ESE,120,3.1,3.1,41,0.00,,---,0.00,VWS V14.01,2013-04-09 14:45:00,
2013-04-09 10:47:00,72.1,47.2,30.45,WSW,239,4.0,4.0,41,0.00,,---,0.00,VWS V14.01,2013-04-09 14:47:00,
2013-04-09 10:48:00,72.3,47.3,30.45,SSW,204,2.7,2.7,41,0.00,,---,0.00,VWS V14.01,2013-04-09 14:48:00,
2013-04-09 10:49:00,72.3,47.3,30.45,SSW,204,2.7,2.7,41,0.00,,---,0.00,VWS V14.01,2013-04-09 14:49:00,
2013-04-09 10:50:00,72.3,47.3,30.45,West,275,2.7,2.7,41,0.00,,---,0.00,VWS V14.01,2013-04-09 14:50:00,
2013-04-09 10:52:00,72.3,47.3,30.45,South,178,2.7,2.7,41,0.00,,---,0.00,VWS V14.01,2013-04-09 14:52:00,
2013-04-09 10:53:00,72.7,46.3,30.45,SSW,202,3.1,3.1,39,0.00,,---,0.00,VWS V14.01,2013-04-09 14:53:00,
2013-04-09 10:54:00,72.7,46.3,30.45,ESE,114,3.6,3.6,39,0.00,,---,0.00,VWS V14.01,2013-04-09 14:54:00,
2013-04-09 10:55:00,72.7,46.3,30.45,ESE,116,2.7,3.6,39,0.00,,---,0.00,VWS V14.01,2013-04-09 14:55:00,
2013-04-09 10:57:00,72.7,47.0,30.45,SSE,157,2.7,2.7,40,0.00,,---,0.00,VWS V14.01,2013-04-09 14:57:00,
2013-04-09 10:58:00,72.7,47.0,30.45,WSW,243,3.1,4.9,40,0.00,,---,0.00,VWS V14.01,2013-04-09 14:58:00,
2013-04-09 10:59:00,72.9,47.2,30.45,SSE,158,3.1,3.1,40,0.00,,---,0.00,VWS V14.01,2013-04-09 14:59:00,
2013-04-09 11:00:00,73.0,47.3,30.45,South,188,3.6,3.6,40,0.00,,---,0.00,VWS V14.01,2013-04-09 15:00:00,
2013-04-09 11:02:00,73.0,47.3,30.45,South,188,3.6,3.6,40,0.00,,---,0.00,VWS V14.01,2013-04-09 15:02:00,
2013-04-09 11:03:00,73.2,47.5,30.45,SSE,150,4.0,4.0,40,0.00,,---,0.00,VWS V14.01,2013-04-09 15:03:00,
2013-04-09 11:05:00,73.6,47.8,30.45,South,169,6.3,6.3,40,0.00,,---,0.00,VWS V14.01,2013-04-09 15:05:00,
2013-04-09 11:06:00,73.6,47.1,30.45,SSE,165,3.1,6.3,39,0.00,,---,0.00,VWS V14.01,2013-04-09 15:06:00,
2013-04-09 11:07:00,73.6,47.1,30.45,South,170,5.8,5.8,39,0.00,,---,0.00,VWS V14.01,2013-04-09 15:07:00,
2013-04-09 11:08:00,73.6,47.1,30.45,SSE,161,4.9,5.8,39,0.00,,---,0.00,VWS V14.01,2013-04-09 15:08:00,
2013-04-09 11:10:00,73.6,47.1,30.45,SW,235,0.0,4.9,39,0.00,,---,0.00,VWS V14.01,2013-04-09 15:10:00,
2013-04-09 11:11:00,74.5,46.5,30.45,SSW,208,3.1,3.6,37,0.00,,---,0.00,VWS V14.01,2013-04-09 15:11:00,
2013-04-09 11:13:00,74.7,46.7,30.45,SSW,207,4.0,5.4,37,0.00,,---,0.00,VWS V14.01,2013-04-09 15:13:00,
2013-04-09 11:15:00,74.7,46.7,30.45,SSE,153,0.0,4.0,37,0.00,,---,0.00,VWS V14.01,2013-04-09 15:15:00,
2013-04-09 11:16:00,74.7,46.7,30.45,SSE,153,0.0,0.0,37,0.00,,---,0.00,VWS V14.01,2013-04-09 15:16:00,
2013-04-09 11:19:00,74.8,46.1,30.45,South,178,5.8,5.8,36,0.00,,---,0.00,VWS V14.01,2013-04-09 15:19:00,
2013-04-09 11:20:00,74.8,46.1,30.45,South,178,5.8,5.8,36,0.00,,---,0.00,VWS V14.01,2013-04-09 15:20:00,
2013-04-09 11:21:00,74.5,45.8,30.45,SE,141,10.1,10.1,36,0.00,,---,0.00,VWS V14.01,2013-04-09 15:21:00,
2013-04-09 11:24:00,74.3,45.7,30.45,SSE,148,7.6,7.6,36,0.00,,---,0.00,VWS V14.01,2013-04-09 15:24:00,
2013-04-09 11:25:00,74.3,45.7,30.45,South,185,6.3,6.3,36,0.00,,---,0.00,VWS V14.01,2013-04-09 15:25:00,
2013-04-09 11:27:00,73.9,46.0,30.45,SSE,167,2.7,2.7,37,0.00,,---,0.00,VWS V14.01,2013-04-09 15:27:00,
2013-04-09 11:29:00,74.1,46.2,30.45,SSW,192,2.7,5.8,37,0.00,,---,0.00,VWS V14.01,2013-04-09 15:29:00,
2013-04-09 11:30:00,74.1,46.2,30.45,SSE,157,3.1,3.1,37,0.00,,---,0.00,VWS V14.01,2013-04-09 15:30:00,
2013-04-09 11:32:00,74.3,46.4,30.45,SSE,160,6.3,6.3,37,0.00,,---,0.00,VWS V14.01,2013-04-09 15:32:00,
2013-04-09 11:34:00,74.3,45.7,30.45,SW,231,0.0,3.6,36,0.00,,---,0.00,VWS V14.01,2013-04-09 15:34:00,
2013-04-09 11:35:00,74.3,45.7,30.45,SW,231,0.0,3.6,36,0.00,,---,0.00,VWS V14.01,2013-04-09 15:35:00,
2013-04-09 11:37:00,74.3,45.7,30.45,SSW,194,4.9,4.9,36,0.00,,---,0.00,VWS V14.01,2013-04-09 15:37:00,
2013-04-09 11:40:00,74.1,46.2,30.45,NNW,341,2.2,5.4,37,0.00,,---,0.00,VWS V14.01,2013-04-09 15:40:00,
2013-04-09 11:42:00,74.1,46.2,30.45,NW,314,0.0,7.6,37,0.00,,---,0.00,VWS V14.01,2013-04-09 15:42:00,
2013-04-09 11:45:00,74.1,46.2,30.45,South,173,5.8,5.8,37,0.00,,---,0.00,VWS V14.01,2013-04-09 15:45:00,
2013-04-09 11:47:00,74.3,46.4,30.45,South,173,5.8,5.8,37,0.00,,---,0.00,VWS V14.01,2013-04-09 15:47:00,
2013-04-09 11:50:00,74.3,46.4,30.45,SSW,205,3.6,3.6,37,0.00,,---,0.00,VWS V14.01,2013-04-09 15:50:00,
2013-04-09 11:51:00,74.3,46.4,30.45,ESE,121,6.7,6.7,37,0.00,,---,0.00,VWS V14.01,2013-04-09 15:51:00,
2013-04-09 11:52:00,74.8,46.1,30.45,ESE,121,6.7,6.7,36,0.00,,---,0.00,VWS V14.01,2013-04-09 15:52:00,
2013-04-09 11:55:00,75.0,46.3,30.45,South,172,4.0,4.0,36,0.00,,---,0.00,VWS V14.01,2013-04-09 15:55:00,
2013-04-09 11:56:00,75.0,46.3,30.45,West,274,4.5,4.5,36,0.00,,---,0.00,VWS V14.01,2013-04-09 15:56:00,
2013-04-09 11:57:00,75.0,46.3,30.45,South,186,4.9,4.9,36,0.00,,---,0.00,VWS V14.01,2013-04-09 15:57:00,
2013-04-09 12:00:00,75.0,46.3,30.45,SSW,196,2.2,3.1,36,0.00,,---,0.00,VWS V14.01,2013-04-09 16:00:00,
2013-04-09 12:01:00,75.2,45.7,30.45,West,260,5.4,5.4,35,0.00,,---,0.00,VWS V14.01,2013-04-09 16:01:00,
2013-04-09 12:02:00,75.2,45.7,30.45,West,260,5.4,5.4,35,0.00,,---,0.00,VWS V14.01,2013-04-09 16:02:00,
2013-04-09 12:05:00,75.4,45.9,30.45,SSE,164,5.8,5.8,35,0.00,,---,0.00,VWS V14.01,2013-04-09 16:05:00,
2013-04-09 12:06:00,75.6,46.0,30.45,SSE,164,5.8,5.8,35,0.00,,---,0.00,VWS V14.01,2013-04-09 16:06:00,
2013-04-09 12:07:00,75.6,46.0,30.45,SE,143,3.1,7.6,35,0.00,,---,0.00,VWS V14.01,2013-04-09 16:07:00,
2013-04-09 12:10:00,75.4,45.9,30.45,SSE,151,4.0,4.0,35,0.00,,---,0.00,VWS V14.01,2013-04-09 16:10:00,
2013-04-09 12:12:00,75.0,45.5,30.45,SE,137,3.1,10.1,35,0.00,,---,0.00,VWS V14.01,2013-04-09 16:12:00,
2013-04-09 12:15:00,75.0,46.3,30.45,ESE,117,8.1,8.1,36,0.00,,---,0.00,VWS V14.01,2013-04-09 16:15:00,
2013-04-09 12:16:00,75.0,46.3,30.45,ESE,117,8.1,8.1,36,0.00,,---,0.00,VWS V14.01,2013-04-09 16:16:00,
2013-04-09 12:17:00,75.0,46.3,30.45,South,182,4.0,8.1,36,0.00,,---,0.00,VWS V14.01,2013-04-09 16:17:00,
2013-04-09 12:21:00,74.8,46.1,30.45,SSE,162,4.9,6.7,36,0.00,,---,0.00,VWS V14.01,2013-04-09 16:21:00,
2013-04-09 12:22:00,74.8,46.1,30.45,South,172,3.6,3.6,36,0.00,,---,0.00,VWS V14.01,2013-04-09 16:22:00,
2013-04-09 12:26:00,74.8,46.1,30.45,SSE,167,5.4,5.4,36,0.00,,---,0.00,VWS V14.01,2013-04-09 16:26:00,
2013-04-09 12:27:00,74.8,46.1,30.45,SSE,167,5.4,5.4,36,0.00,,---,0.00,VWS V14.01,2013-04-09 16:27:00,
2013-04-09 12:31:00,74.8,46.1,30.45,SSE,151,8.1,8.1,36,0.00,,---,0.00,VWS V14.01,2013-04-09 16:31:00,
2013-04-09 12:32:00,74.8,46.1,30.45,SSW,204,7.2,7.2,36,0.00,,---,0.00,VWS V14.01,2013-04-09 16:32:00,
2013-04-09 12:36:00,74.8,46.1,30.45,South,174,4.0,6.7,36,0.00,,---,0.00,VWS V14.01,2013-04-09 16:36:00,
2013-04-09 12:37:00,74.5,45.8,30.45,SSW,204,3.6,3.6,36,0.00,,---,0.00,VWS V14.01,2013-04-09 16:37:00,
2013-04-09 12:41:00,74.3,46.4,30.45,SSW,209,8.1,8.1,37,0.00,,---,0.00,VWS V14.01,2013-04-09 16:41:00,
2013-04-09 12:42:00,74.3,46.4,30.45,SSW,209,8.1,8.1,37,0.00,,---,0.00,VWS V14.01,2013-04-09 16:42:00,
2013-04-09 12:46:00,74.3,46.4,30.45,SW,232,4.0,4.0,37,0.00,,---,0.00,VWS V14.01,2013-04-09 16:46:00,
2013-04-09 12:47:00,74.3,46.4,30.45,SSW,212,6.3,6.3,37,0.00,,---,0.00,VWS V14.01,2013-04-09 16:47:00,
2013-04-09 12:51:00,74.3,46.4,30.42,SW,225,6.3,9.6,37,0.00,,---,0.00,VWS V14.01,2013-04-09 16:51:00,
2013-04-09 12:52:00,74.3,46.4,30.42,South,185,3.1,6.3,37,0.00,,---,0.00,VWS V14.01,2013-04-09 16:52:00,
2013-04-09 12:56:00,73.6,46.4,30.42,SSW,210,3.6,3.6,38,0.00,,---,0.00,VWS V14.01,2013-04-09 16:56:00,
2013-04-09 12:57:00,73.8,45.9,30.42,West,272,3.1,3.6,37,0.00,,---,0.00,VWS V14.01,2013-04-09 16:57:00,
2013-04-09 12:58:00,73.8,45.9,30.42,West,272,3.1,3.6,37,0.00,,---,0.00,VWS V14.01,2013-04-09 16:58:00,
2013-04-09 13:02:00,73.6,46.4,30.42,NW,309,0.0,0.0,38,0.00,,---,0.00,VWS V14.01,2013-04-09 17:02:00,
2013-04-09 13:03:00,73.6,46.4,30.42,SSE,156,6.3,6.3,38,0.00,,---,0.00,VWS V14.01,2013-04-09 17:03:00,
2013-04-09 13:07:00,73.6,45.7,30.42,SW,218,3.6,3.6,37,0.00,,---,0.00,VWS V14.01,2013-04-09 17:07:00,
2013-04-09 13:08:00,73.4,45.6,30.42,SW,218,3.6,3.6,37,0.00,,---,0.00,VWS V14.01,2013-04-09 17:08:00,
2013-04-09 13:12:00,73.2,46.1,30.42,SSE,156,3.6,3.6,38,0.00,,---,0.00,VWS V14.01,2013-04-09 17:12:00,
2013-04-09 13:13:00,73.4,46.3,30.42,NW,307,4.0,4.0,38,0.00,,---,0.00,VWS V14.01,2013-04-09 17:13:00,
2013-04-09 13:17:00,73.2,46.1,30.42,SW,222,5.4,5.4,38,0.00,,---,0.00,VWS V14.01,2013-04-09 17:17:00,
2013-04-09 13:18:00,73.2,46.1,30.42,South,175,5.8,5.8,38,0.00,,---,0.00,VWS V14.01,2013-04-09 17:18:00,
2013-04-09 13:22:00,73.2,46.1,30.42,SSE,160,8.3,8.3,38,0.00,,---,0.00,VWS V14.01,2013-04-09 17:22:00,
2013-04-09 13:23:00,73.2,46.1,30.42,SSE,168,5.4,5.4,38,0.00,,---,0.00,VWS V14.01,2013-04-09 17:23:00,
2013-04-09 13:27:00,73.8,46.6,30.42,South,180,3.1,3.1,38,0.00,,---,0.00,VWS V14.01,2013-04-09 17:27:00,
2013-04-09 13:28:00,73.8,46.6,30.42,South,180,3.1,3.1,38,0.00,,---,0.00,VWS V14.01,2013-04-09 17:28:00,
2013-04-09 13:32:00,73.9,46.0,30.42,SSE,162,3.1,3.1,37,0.00,,---,0.00,VWS V14.01,2013-04-09 17:32:00,
2013-04-09 13:33:00,73.9,46.0,30.42,South,190,2.7,2.7,37,0.00,,---,0.00,VWS V14.01,2013-04-09 17:33:00,
2013-04-09 13:37:00,73.2,46.1,30.42,ESE,116,3.6,3.6,38,0.00,,---,0.00,VWS V14.01,2013-04-09 17:37:00,
2013-04-09 13:38:00,73.2,46.1,30.42,ESE,116,3.6,3.6,38,0.00,,---,0.00,VWS V14.01,2013-04-09 17:38:00,
2013-04-09 13:42:00,72.9,46.5,30.42,SSE,164,3.6,3.6,39,0.00,,---,0.00,VWS V14.01,2013-04-09 17:42:00,
2013-04-09 13:43:00,72.9,46.5,30.42,SSE,164,3.6,3.6,39,0.00,,---,0.00,VWS V14.01,2013-04-09 17:43:00,
2013-04-09 13:47:00,72.9,46.5,30.42,SSW,201,8.3,8.3,39,0.00,,---,0.00,VWS V14.01,2013-04-09 17:47:00,
2013-04-09 13:48:00,72.9,46.5,30.42,SSW,201,8.3,8.3,39,0.00,,---,0.00,VWS V14.01,2013-04-09 17:48:00,
2013-04-09 13:49:00,72.9,46.5,30.42,SSW,201,8.3,8.3,39,0.00,,---,0.00,VWS V14.01,2013-04-09 17:49:00,
2013-04-09 13:52:00,73.0,46.0,30.42,SSW,205,5.4,5.4,38,0.00,,---,0.00,VWS V14.01,2013-04-09 17:52:00,
2013-04-09 13:53:00,73.0,46.0,30.42,SSE,162,3.6,3.6,38,0.00,,---,0.00,VWS V14.01,2013-04-09 17:53:00,
2013-04-09 13:54:00,73.0,46.0,30.42,SSE,148,8.7,8.7,38,0.00,,---,0.00,VWS V14.01,2013-04-09 17:54:00,
2013-04-09 13:57:00,73.0,46.0,30.42,South,187,5.8,5.8,38,0.00,,---,0.00,VWS V14.01,2013-04-09 17:57:00,
2013-04-09 13:58:00,73.0,46.0,30.42,South,187,5.8,5.8,38,0.00,,---,0.00,VWS V14.01,2013-04-09 17:58:00,
2013-04-09 13:59:00,73.0,46.0,30.42,South,187,5.8,5.8,38,0.00,,---,0.00,VWS V14.01,2013-04-09 17:59:00,
2013-04-09 14:02:00,73.0,46.0,30.42,SSW,208,8.1,8.1,38,0.00,,---,0.00,VWS V14.01,2013-04-09 18:02:00,
2013-04-09 14:04:00,73.0,46.0,30.42,South,181,5.8,5.8,38,0.00,,---,0.00,VWS V14.01,2013-04-09 18:04:00,
2013-04-09 14:05:00,73.0,46.6,30.42,South,181,5.8,5.8,39,0.00,,---,0.00,VWS V14.01,2013-04-09 18:05:00,
2013-04-09 14:08:00,73.0,46.6,30.42,SSE,149,6.3,6.3,39,0.00,,---,0.00,VWS V14.01,2013-04-09 18:08:00,
2013-04-09 14:09:00,73.0,46.6,30.42,SSE,149,3.6,3.6,39,0.00,,---,0.00,VWS V14.01,2013-04-09 18:09:00,
2013-04-09 14:10:00,73.0,46.6,30.42,WSW,252,5.4,5.4,39,0.00,,---,0.00,VWS V14.01,2013-04-09 18:10:00,
2013-04-09 14:13:00,73.2,47.5,30.42,SSW,193,8.1,8.1,40,0.00,,---,0.00,VWS V14.01,2013-04-09 18:13:00,
2013-04-09 14:14:00,73.4,47.0,30.42,South,172,4.0,4.0,39,0.00,,---,0.00,VWS V14.01,2013-04-09 18:14:00,
2013-04-09 14:15:00,73.4,47.0,30.42,SSW,192,5.8,5.8,39,0.00,,---,0.00,VWS V14.01,2013-04-09 18:15:00,
2013-04-09 14:18:00,74.1,46.9,30.42,SSW,196,8.1,8.1,38,0.00,,---,0.00,VWS V14.01,2013-04-09 18:18:00,
2013-04-09 14:19:00,74.1,46.9,30.42,SW,227,5.4,8.3,38,0.00,,---,0.00,VWS V14.01,2013-04-09 18:19:00,
2013-04-09 14:20:00,74.1,46.9,30.42,SSW,213,4.9,5.4,38,0.00,,---,0.00,VWS V14.01,2013-04-09 18:20:00,
2013-04-09 14:23:00,74.3,46.4,30.42,SSW,200,8.1,8.1,37,0.00,,---,0.00,VWS V14.01,2013-04-09 18:23:00,
2013-04-09 14:24:00,74.1,46.2,30.42,South,176,4.0,4.0,37,0.00,,---,0.00,VWS V14.01,2013-04-09 18:24:00,
2013-04-09 14:25:00,74.1,46.2,30.42,South,176,4.0,4.0,37,0.00,,---,0.00,VWS V14.01,2013-04-09 18:25:00,
2013-04-09 14:28:00,74.5,46.5,30.42,SE,131,5.4,5.4,37,0.00,,---,0.00,VWS V14.01,2013-04-09 18:28:00,
2013-04-09 14:30:00,74.5,46.5,30.42,South,191,5.4,5.4,37,0.00,,---,0.00,VWS V14.01,2013-04-09 18:30:00,
2013-04-09 14:31:00,74.1,46.2,30.42,South,191,5.4,5.4,37,0.00,,---,0.00,VWS V14.01,2013-04-09 18:31:00,
2013-04-09 14:33:00,73.9,46.0,30.42,SSW,196,5.4,5.4,37,0.00,,---,0.00,VWS V14.01,2013-04-09 18:33:00,
2013-04-09 14:35:00,73.9,46.0,30.42,South,185,11.9,11.9,37,0.00,,---,0.00,VWS V14.01,2013-04-09 18:35:00,
2013-04-09 14:36:00,73.9,46.0,30.42,SSE,154,5.4,11.9,37,0.00,,---,0.00,VWS V14.01,2013-04-09 18:36:00,
2013-04-09 14:38:00,73.9,46.0,30.42,South,169,6.7,12.8,37,0.00,,---,0.00,VWS V14.01,2013-04-09 18:38:00,
2013-04-09 14:40:00,74.1,46.9,30.42,South,188,3.1,7.6,38,0.00,,---,0.00,VWS V14.01,2013-04-09 18:40:00,
2013-04-09 14:42:00,74.3,46.4,30.42,SSE,161,7.2,7.2,37,0.00,,---,0.00,VWS V14.01,2013-04-09 18:42:00,
2013-04-09 14:43:00,74.3,46.4,30.42,SW,225,7.6,7.6,37,0.00,,---,0.00,VWS V14.01,2013-04-09 18:43:00,
2013-04-09 14:45:00,74.1,46.2,30.42,South,190,5.4,13.6,37,0.00,,---,0.00,VWS V14.01,2013-04-09 18:45:00,
2013-04-09 14:46:00,74.1,46.2,30.42,SW,218,8.3,13.6,37,0.00,,---,0.00,VWS V14.01,2013-04-09 18:46:00,
2013-04-09 14:47:00,74.1,46.2,30.42,WSW,238,7.6,7.6,37,0.00,,---,0.00,VWS V14.01,2013-04-09 18:47:00,
2013-04-09 14:48:00,73.8,45.9,30.42,SSW,200,8.3,10.1,37,0.00,,---,0.00,VWS V14.01,2013-04-09 18:48:00,
2013-04-09 14:50:00,73.6,45.7,30.42,NNW,346,3.1,3.1,37,0.00,,---,0.00,VWS V14.01,2013-04-09 18:50:00,
2013-04-09 14:51:00,73.6,45.7,30.42,NNW,346,3.1,3.1,37,0.00,,---,0.00,VWS V14.01,2013-04-09 18:51:00,
2013-04-09 14:52:00,73.6,45.7,30.42,South,191,3.1,3.6,37,0.00,,---,0.00,VWS V14.01,2013-04-09 18:52:00,
2013-04-09 14:53:00,73.6,45.7,30.42,South,191,3.1,3.1,37,0.00,,---,0.00,VWS V14.01,2013-04-09 18:53:00,
2013-04-09 14:55:00,73.6,45.7,30.42,South,189,4.9,4.9,37,0.00,,---,0.00,VWS V14.01,2013-04-09 18:55:00,
2013-04-09 14:56:00,73.4,47.0,30.42,South,189,4.9,4.9,39,0.00,,---,0.00,VWS V14.01,2013-04-09 18:56:00,
2013-04-09 14:57:00,73.4,46.3,30.42,SE,146,2.7,2.7,38,0.00,,---,0.00,VWS V14.01,2013-04-09 18:57:00,
2013-04-09 14:58:00,73.4,46.3,30.42,SSE,154,3.6,4.9,38,0.00,,---,0.00,VWS V14.01,2013-04-09 18:58:00,
2013-04-09 15:00:00,73.6,46.4,30.42,SE,131,3.1,3.1,38,0.00,,---,0.00,VWS V14.01,2013-04-09 19:00:00,
2013-04-09 15:01:00,73.6,46.4,30.42,SW,219,3.6,3.6,38,0.00,,---,0.00,VWS V14.01,2013-04-09 19:01:00,
2013-04-09 15:02:00,73.6,46.4,30.42,SW,219,3.6,3.6,38,0.00,,---,0.00,VWS V14.01,2013-04-09 19:02:00,
2013-04-09 15:03:00,73.8,45.9,30.42,WSW,258,3.6,3.6,37,0.00,,---,0.00,VWS V14.01,2013-04-09 19:03:00,
2013-04-09 15:05:00,73.6,46.4,30.42,SE,131,3.1,3.1,38,0.00,,---,0.00,VWS V14.01,2013-04-09 19:05:00,
2013-04-09 15:06:00,73.6,46.4,30.42,SW,225,4.9,4.9,38,0.00,,---,0.00,VWS V14.01,2013-04-09 19:06:00,
2013-04-09 15:08:00,73.6,46.4,30.42,SSE,151,3.1,3.1,38,0.00,,---,0.00,VWS V14.01,2013-04-09 19:08:00,
2013-04-09 15:09:00,73.4,46.3,30.42,SSW,205,4.9,4.9,38,0.00,,---,0.00,VWS V14.01,2013-04-09 19:09:00,
2013-04-09 15:10:00,73.4,46.3,30.42,SSW,205,4.9,4.9,38,0.00,,---,0.00,VWS V14.01,2013-04-09 19:10:00,
2013-04-09 15:11:00,73.4,46.3,30.42,SSW,205,4.9,4.9,38,0.00,,---,0.00,VWS V14.01,2013-04-09 19:11:00,
2013-04-09 15:13:00,73.0,46.0,30.42,SW,231,3.6,3.6,38,0.00,,---,0.00,VWS V14.01,2013-04-09 19:13:00,
2013-04-09 15:14:00,73.0,46.0,30.42,SSW,205,3.6,3.6,38,0.00,,---,0.00,VWS V14.01,2013-04-09 19:14:00,
2013-04-09 15:15:00,72.9,46.5,30.42,SSW,205,3.6,3.6,39,0.00,,---,0.00,VWS V14.01,2013-04-09 19:15:00,
2013-04-09 15:16:00,72.9,46.5,30.42,South,186,3.1,3.1,39,0.00,,---,0.00,VWS V14.01,2013-04-09 19:16:00,
2013-04-09 15:18:00,72.9,46.5,30.42,South,186,3.1,3.1,39,0.00,,---,0.00,VWS V14.01,2013-04-09 19:18:00,
2013-04-09 15:19:00,72.9,46.5,30.42,SSW,211,8.1,8.1,39,0.00,,---,0.00,VWS V14.01,2013-04-09 19:19:00,
2013-04-09 15:20:00,72.9,47.2,30.42,SW,235,3.6,8.1,40,0.00,,---,0.00,VWS V14.01,2013-04-09 19:20:00,
2013-04-09 15:22:00,72.9,47.2,30.39,South,186,4.0,4.0,40,0.00,,---,0.00,VWS V14.01,2013-04-09 19:22:00,
2013-04-09 15:23:00,72.7,47.0,30.39,WNW,285,3.1,3.1,40,0.00,,---,0.00,VWS V14.01,2013-04-09 19:23:00,
2013-04-09 15:24:00,72.7,47.0,30.39,ESE,114,2.7,5.4,40,0.00,,---,0.00,VWS V14.01,2013-04-09 19:24:00,
2013-04-09 15:26:00,72.7,47.0,30.39,SW,222,4.9,4.9,40,0.00,,---,0.00,VWS V14.01,2013-04-09 19:26:00,
2013-04-09 15:27:00,72.7,47.0,30.39,SSW,206,3.6,4.0,40,0.00,,---,0.00,VWS V14.01,2013-04-09 19:27:00,
2013-04-09 15:28:00,72.9,47.8,30.39,SSW,206,3.6,3.6,41,0.00,,---,0.00,VWS V14.01,2013-04-09 19:28:00,
2013-04-09 15:30:00,73.0,47.3,30.39,WSW,256,0.0,0.0,40,0.00,,---,0.00,VWS V14.01,2013-04-09 19:30:00,
2013-04-09 15:31:00,73.0,47.3,30.39,ESE,114,3.1,3.1,40,0.00,,---,0.00,VWS V14.01,2013-04-09 19:31:00,
2013-04-09 15:32:00,73.4,47.0,30.39,SE,125,2.7,3.6,39,0.00,,---,0.00,VWS V14.01,2013-04-09 19:32:00,
2013-04-09 15:33:00,73.4,47.0,30.39,South,187,3.1,3.1,39,0.00,,---,0.00,VWS V14.01,2013-04-09 19:33:00,
2013-04-09 15:35:00,73.4,47.0,30.39,SSW,210,5.4,5.4,39,0.00,,---,0.00,VWS V14.01,2013-04-09 19:35:00,
2013-04-09 15:36:00,73.4,47.0,30.39,SW,222,3.6,5.4,39,0.00,,---,0.00,VWS V14.01,2013-04-09 19:36:00,
2013-04-09 15:37:00,73.4,47.0,30.39,SW,233,4.0,4.0,39,0.00,,---,0.00,VWS V14.01,2013-04-09 19:37:00,
2013-04-09 15:38:00,73.4,47.0,30.39,SSW,193,3.1,3.6,39,0.00,,---,0.00,VWS V14.01,2013-04-09 19:38:00,
2013-04-09 15:40:00,73.6,46.4,30.39,South,178,2.7,4.0,38,0.00,,---,0.00,VWS V14.01,2013-04-09 19:40:00,
2013-04-09 15:41:00,73.6,46.4,30.39,South,178,2.7,4.0,38,0.00,,---,0.00,VWS V14.01,2013-04-09 19:41:00,
2013-04-09 15:42:00,73.2,46.8,30.39,SSE,154,4.9,4.9,39,0.00,,---,0.00,VWS V14.01,2013-04-09 19:42:00,
2013-04-09 15:44:00,73.2,46.8,30.39,WSW,243,3.6,3.6,39,0.00,,---,0.00,VWS V14.01,2013-04-09 19:44:00,
2013-04-09 15:45:00,73.4,47.0,30.39,South,183,2.7,2.7,39,0.00,,---,0.00,VWS V14.01,2013-04-09 19:45:00,
2013-04-09 15:46:00,73.4,47.0,30.39,South,183,2.7,2.7,39,0.00,,---,0.00,VWS V14.01,2013-04-09 19:46:00,
2013-04-09 15:48:00,73.4,47.0,30.39,SW,216,4.9,4.9,39,0.00,,---,0.00,VWS V14.01,2013-04-09 19:48:00,
2013-04-09 15:49:00,73.4,47.0,30.39,SSW,202,2.2,4.0,39,0.00,,---,0.00,VWS V14.01,2013-04-09 19:49:00,
2013-04-09 15:50:00,73.6,46.4,30.39,South,182,4.0,4.0,38,0.00,,---,0.00,VWS V14.01,2013-04-09 19:50:00,
2013-04-09 15:51:00,73.6,46.4,30.39,South,182,4.0,4.0,38,0.00,,---,0.00,VWS V14.01,2013-04-09 19:51:00,
2013-04-09 15:53:00,73.8,47.3,30.39,SSE,164,4.0,7.6,39,0.00,,---,0.00,VWS V14.01,2013-04-09 19:53:00,
2013-04-09 15:54:00,73.8,47.3,30.39,SSW,195,5.8,8.1,39,0.00,,---,0.00,VWS V14.01,2013-04-09 19:54:00,
2013-04-09 15:55:00,73.8,47.3,30.39,East,88,3.1,5.8,39,0.00,,---,0.00,VWS V14.01,2013-04-09 19:55:00,
2013-04-09 15:56:00,74.1,46.9,30.39,SSW,193,2.2,3.1,38,0.00,,---,0.00,VWS V14.01,2013-04-09 19:56:00,
2013-04-09 15:58:00,74.1,46.9,30.39,West,265,4.0,5.8,38,0.00,,---,0.00,VWS V14.01,2013-04-09 19:58:00,
2013-04-09 15:59:00,74.1,46.2,30.39,WSW,242,0.0,6.3,37,0.00,,---,0.00,VWS V14.01,2013-04-09 19:59:00,
2013-04-09 16:00:00,74.1,46.2,30.39,West,270,2.7,3.6,37,0.00,,---,0.00,VWS V14.01,2013-04-09 20:00:00,
2013-04-09 16:01:00,74.1,46.2,30.39,West,270,2.7,2.7,37,0.00,,---,0.00,VWS V14.01,2013-04-09 20:01:00,
2013-04-09 16:03:00,74.1,46.2,30.39,East,98,4.0,4.0,37,0.00,,---,0.00,VWS V14.01,2013-04-09 20:03:00,
2013-04-09 16:04:00,74.1,46.2,30.39,SSE,167,2.7,4.0,37,0.00,,---,0.00,VWS V14.01,2013-04-09 20:04:00,
2013-04-09 16:05:00,74.1,46.2,30.39,South,187,2.7,2.7,37,0.00,,---,0.00,VWS V14.01,2013-04-09 20:05:00,
2013-04-09 16:06:00,73.6,46.4,30.39,SSE,166,4.9,4.9,38,0.00,,---,0.00,VWS V14.01,2013-04-09 20:06:00,
2013-04-09 16:08:00,73.4,46.3,30.39,SW,229,2.7,4.9,38,0.00,,---,0.00,VWS V14.01,2013-04-09 20:08:00,
2013-04-09 16:09:00,73.4,46.3,30.39,SE,140,3.1,8.1,38,0.00,,---,0.00,VWS V14.01,2013-04-09 20:09:00,
2013-04-09 16:10:00,73.4,46.3,30.39,SSE,157,3.6,3.6,38,0.00,,---,0.00,VWS V14.01,2013-04-09 20:10:00,
2013-04-09 16:11:00,73.2,46.8,30.39,South,180,2.7,3.6,39,0.00,,---,0.00,VWS V14.01,2013-04-09 20:11:00,
2013-04-09 16:13:00,73.0,46.6,30.39,SSW,192,3.1,3.1,39,0.00,,---,0.00,VWS V14.01,2013-04-09 20:13:00,
2013-04-09 16:14:00,73.0,46.6,30.39,SW,232,6.3,6.3,39,0.00,,---,0.00,VWS V14.01,2013-04-09 20:14:00,
2013-04-09 16:16:00,73.0,47.3,30.39,SE,140,3.6,6.3,40,0.00,,---,0.00,VWS V14.01,2013-04-09 20:16:00,
2013-04-09 16:17:00,73.0,47.3,30.39,SW,232,2.7,4.0,40,0.00,,---,0.00,VWS V14.01,2013-04-09 20:17:00,
2013-04-09 16:18:00,73.0,47.3,30.39,SSW,198,6.3,6.3,40,0.00,,---,0.00,VWS V14.01,2013-04-09 20:18:00,
2013-04-09 16:20:00,73.2,47.5,30.39,SSE,163,4.0,5.4,40,0.00,,---,0.00,VWS V14.01,2013-04-09 20:20:00,
2013-04-09 16:21:00,73.2,47.5,30.39,ENE,72,4.5,4.5,40,0.00,,---,0.00,VWS V14.01,2013-04-09 20:21:00,
2013-04-09 16:22:00,73.4,46.3,30.39,South,187,2.2,4.5,38,0.00,,---,0.00,VWS V14.01,2013-04-09 20:22:00,
2013-04-09 16:23:00,73.4,46.3,30.39,SSW,194,2.7,2.7,38,0.00,,---,0.00,VWS V14.01,2013-04-09 20:23:00,
2013-04-09 16:25:00,73.4,46.3,30.39,SE,132,4.0,7.6,38,0.00,,---,0.00,VWS V14.01,2013-04-09 20:25:00,
2013-04-09 16:26:00,73.0,46.6,30.39,South,170,5.8,5.8,39,0.00,,---,0.00,VWS V14.01,2013-04-09 20:26:00,
2013-04-09 16:27:00,73.0,46.6,30.39,South,177,5.4,5.4,39,0.00,,---,0.00,VWS V14.01,2013-04-09 20:27:00,
2013-04-09 16:28:00,73.0,46.6,30.39,South,177,5.4,5.4,39,0.00,,---,0.00,VWS V14.01,2013-04-09 20:28:00,
2013-04-09 16:30:00,73.0,46.6,30.39,WNW,295,3.1,3.1,39,0.00,,---,0.00,VWS V14.01,2013-04-09 20:30:00,
2013-04-09 16:31:00,73.0,46.6,30.39,WNW,295,3.1,3.1,39,0.00,,---,0.00,VWS V14.01,2013-04-09 20:31:00,
2013-04-09 16:33:00,72.9,46.5,30.39,ESE,107,2.2,2.7,39,0.00,,---,0.00,VWS V14.01,2013-04-09 20:33:00,
2013-04-09 16:35:00,72.7,47.0,30.39,ESE,109,4.0,5.4,40,0.00,,---,0.00,VWS V14.01,2013-04-09 20:35:00,
2013-04-09 16:36:00,72.7,47.0,30.39,SSE,162,0.0,3.1,40,0.00,,---,0.00,VWS V14.01,2013-04-09 20:36:00,
2013-04-09 16:37:00,72.5,46.8,30.39,West,279,2.2,4.9,40,0.00,,---,0.00,VWS V14.01,2013-04-09 20:37:00,
2013-04-09 16:38:00,72.3,46.7,30.39,SSE,168,3.1,3.1,40,0.00,,---,0.00,VWS V14.01,2013-04-09 20:38:00,
2013-04-09 16:40:00,72.3,46.7,30.39,SE,144,4.0,4.0,40,0.00,,---,0.00,VWS V14.01,2013-04-09 20:40:00,
2013-04-09 16:41:00,72.3,46.7,30.39,SSW,208,3.1,5.4,40,0.00,,---,0.00,VWS V14.01,2013-04-09 20:41:00,
2013-04-09 16:42:00,72.1,46.5,30.39,South,174,2.2,4.0,40,0.00,,---,0.00,VWS V14.01,2013-04-09 20:42:00,
2013-04-09 16:43:00,72.1,47.2,30.39,SW,233,4.0,4.0,41,0.00,,---,0.00,VWS V14.01,2013-04-09 20:43:00,
2013-04-09 16:45:00,72.0,47.0,30.39,SSW,202,3.6,4.0,41,0.00,,---,0.00,VWS V14.01,2013-04-09 20:45:00,
2013-04-09 16:46:00,72.0,47.0,30.39,SSE,162,4.0,4.0,41,0.00,,---,0.00,VWS V14.01,2013-04-09 20:46:00,
2013-04-09 16:47:00,71.8,46.8,30.39,SW,232,3.1,3.1,41,0.00,,---,0.00,VWS V14.01,2013-04-09 20:47:00,
2013-04-09 16:49:00,71.8,46.8,30.39,SSW,199,2.7,3.1,41,0.00,,---,0.00,VWS V14.01,2013-04-09 20:49:00,
2013-04-09 16:50:00,71.8,46.8,30.39,WNW,287,3.6,3.6,41,0.00,,---,0.00,VWS V14.01,2013-04-09 20:50:00,
2013-04-09 16:52:00,71.8,46.8,30.39,SSW,204,2.7,2.7,41,0.00,,---,0.00,VWS V14.01,2013-04-09 20:52:00,
2013-04-09 16:53:00,71.8,46.8,30.39,WNW,300,2.7,2.7,41,0.00,,---,0.00,VWS V14.01,2013-04-09 20:53:00,
2013-04-09 16:54:00,71.8,46.8,30.39,South,169,4.9,4.9,41,0.00,,---,0.00,VWS V14.01,2013-04-09 20:54:00,
2013-04-09 16:55:00,71.8,46.8,30.39,WSW,238,3.6,3.6,41,0.00,,---,0.00,VWS V14.01,2013-04-09 20:55:00,
2013-04-09 16:57:00,71.8,47.5,30.36,South,189,3.6,3.6,42,0.00,,---,0.00,VWS V14.01,2013-04-09 20:57:00,
2013-04-09 16:58:00,71.8,47.5,30.36,SSE,154,5.8,5.8,42,0.00,,---,0.00,VWS V14.01,2013-04-09 20:58:00,
2013-04-09 17:00:00,71.8,47.5,30.36,SW,222,2.7,2.7,42,0.00,,---,0.00,VWS V14.01,2013-04-09 21:00:00,
2013-04-09 17:02:00,72.1,47.2,30.36,South,182,8.1,8.1,41,0.00,,---,0.00,VWS V14.01,2013-04-09 21:02:00,
2013-04-09 17:03:00,72.3,47.3,30.36,SSW,203,5.4,8.1,41,0.00,,---,0.00,VWS V14.01,2013-04-09 21:03:00,
2013-04-09 17:05:00,72.3,47.3,30.36,South,182,5.8,5.8,41,0.00,,---,0.00,VWS V14.01,2013-04-09 21:05:00,
2013-04-09 17:06:00,72.3,46.7,30.36,South,182,5.8,5.8,40,0.00,,---,0.00,VWS V14.01,2013-04-09 21:06:00,
2013-04-09 17:07:00,72.3,46.7,30.36,SSW,198,6.3,6.3,40,0.00,,---,0.00,VWS V14.01,2013-04-09 21:07:00,
2013-04-09 17:08:00,72.3,46.7,30.36,South,176,5.8,6.3,40,0.00,,---,0.00,VWS V14.01,2013-04-09 21:08:00,
2013-04-09 17:10:00,72.3,46.7,30.36,SSE,163,4.0,6.3,40,0.00,,---,0.00,VWS V14.01,2013-04-09 21:10:00,
2013-04-09 17:11:00,72.3,46.7,30.36,SSE,153,4.9,6.3,40,0.00,,---,0.00,VWS V14.01,2013-04-09 21:11:00,
2013-04-09 17:13:00,72.3,46.7,30.36,SSE,156,6.3,6.3,40,0.00,,---,0.00,VWS V14.01,2013-04-09 21:13:00,
2013-04-09 17:15:00,72.3,46.7,30.36,SSW,196,4.9,4.9,40,0.00,,---,0.00,VWS V14.01,2013-04-09 21:15:00,
2013-04-09 17:16:00,72.3,46.7,30.36,SSW,196,4.9,4.9,40,0.00,,---,0.00,VWS V14.01,2013-04-09 21:16:00,
2013-04-09 17:18:00,72.3,46.7,30.36,ENE,66,2.7,2.7,40,0.00,,---,0.00,VWS V14.01,2013-04-09 21:18:00,
2013-04-09 17:20:00,72.1,46.5,30.36,South,188,0.0,0.0,40,0.00,,---,0.00,VWS V14.01,2013-04-09 21:20:00,
2013-04-09 17:21:00,72.0,46.3,30.36,SSE,152,3.1,3.1,40,0.00,,---,0.00,VWS V14.01,2013-04-09 21:21:00,
2013-04-09 17:23:00,72.0,46.3,30.36,SSE,161,5.8,5.8,40,0.00,,---,0.00,VWS V14.01,2013-04-09 21:23:00,
2013-04-09 17:25:00,72.0,46.3,30.36,SSE,152,0.0,0.0,40,0.00,,---,0.00,VWS V14.01,2013-04-09 21:25:00,
2013-04-09 17:26:00,72.0,46.3,30.36,SSE,158,3.6,3.6,40,0.00,,---,0.00,VWS V14.01,2013-04-09 21:26:00,
2013-04-09 17:28:00,72.0,46.3,30.36,SSW,206,3.6,3.6,40,0.00,,---,0.00,VWS V14.01,2013-04-09 21:28:00,
2013-04-09 17:30:00,71.6,46.7,30.36,SSW,193,3.6,4.0,41,0.00,,---,0.00,VWS V14.01,2013-04-09 21:30:00,
2013-04-09 17:32:00,71.6,46.7,30.36,WSW,253,2.7,3.1,41,0.00,,---,0.00,VWS V14.01,2013-04-09 21:32:00,
2013-04-09 17:33:00,71.6,46.7,30.36,WSW,253,2.7,2.7,41,0.00,,---,0.00,VWS V14.01,2013-04-09 21:33:00,
2013-04-09 17:35:00,71.4,47.2,30.36,NW,305,3.1,3.1,42,0.00,,---,0.00,VWS V14.01,2013-04-09 21:35:00,
2013-04-09 17:37:00,71.4,47.2,30.36,ESE,114,4.5,4.5,42,0.00,,---,0.00,VWS V14.01,2013-04-09 21:37:00,
2013-04-09 17:38:00,71.1,46.8,30.36,ESE,114,4.5,4.5,42,0.00,,---,0.00,VWS V14.01,2013-04-09 21:38:00,
2013-04-09 17:39:00,71.1,46.8,30.36,South,190,2.7,2.7,42,0.00,,---,0.00,VWS V14.01,2013-04-09 21:39:00,
2013-04-09 17:40:00,71.1,46.8,30.36,SW,218,2.7,3.6,42,0.00,,---,0.00,VWS V14.01,2013-04-09 21:40:00,
2013-04-09 17:42:00,70.7,46.5,30.36,South,181,0.0,0.0,42,0.00,,---,0.00,VWS V14.01,2013-04-09 21:42:00,
2013-04-09 17:43:00,70.7,46.5,30.36,South,181,0.0,0.0,42,0.00,,---,0.00,VWS V14.01,2013-04-09 21:43:00,
2013-04-09 17:44:00,70.5,46.3,30.36,South,181,2.7,2.7,42,0.00,,---,0.00,VWS V14.01,2013-04-09 21:44:00,
2013-04-09 17:45:00,70.3,46.8,30.36,ESE,117,4.0,4.0,43,0.00,,---,0.00,VWS V14.01,2013-04-09 21:45:00,
2013-04-09 17:48:00,70.2,46.6,30.36,South,185,4.9,4.9,43,0.00,,---,0.00,VWS V14.01,2013-04-09 21:48:00,
2013-04-09 17:49:00,70.2,46.6,30.36,SSW,209,3.1,3.1,43,0.00,,---,0.00,VWS V14.01,2013-04-09 21:49:00,
2013-04-09 17:51:00,70.2,46.6,30.36,ESE,113,0.0,3.1,43,0.00,,---,0.00,VWS V14.01,2013-04-09 21:51:00,
2013-04-09 17:53:00,70.0,46.5,30.39,SE,138,3.6,3.6,43,0.00,,---,0.00,VWS V14.01,2013-04-09 21:53:00,
2013-04-09 17:54:00,69.8,46.3,30.39,SE,138,3.6,3.6,43,0.00,,---,0.00,VWS V14.01,2013-04-09 21:54:00,
2013-04-09 17:57:00,69.8,46.9,30.39,South,186,0.0,3.1,44,0.00,,---,0.00,VWS V14.01,2013-04-09 21:57:00,
2013-04-09 17:58:00,69.8,46.9,30.39,SE,135,4.9,4.9,44,0.00,,---,0.00,VWS V14.01,2013-04-09 21:58:00,
2013-04-09 17:59:00,69.8,46.9,30.39,South,183,3.6,3.6,44,0.00,,---,0.00,VWS V14.01,2013-04-09 21:59:00,
2013-04-09 18:02:00,69.6,47.4,30.39,SW,223,2.2,4.9,45,0.00,,---,0.00,VWS V14.01,2013-04-09 22:02:00,
2013-04-09 18:03:00,69.4,47.2,30.39,SSW,208,2.2,2.2,45,0.00,,---,0.00,VWS V14.01,2013-04-09 22:03:00,
2013-04-09 18:04:00,69.4,47.2,30.39,SSE,155,3.6,3.6,45,0.00,,---,0.00,VWS V14.01,2013-04-09 22:04:00,
2013-04-09 18:07:00,69.4,47.2,30.39,South,189,0.0,0.0,45,0.00,,---,0.00,VWS V14.01,2013-04-09 22:07:00,
2013-04-09 18:08:00,69.4,47.2,30.39,ESE,114,4.0,4.0,45,0.00,,---,0.00,VWS V14.01,2013-04-09 22:08:00,
2013-04-09 18:10:00,69.3,47.0,30.39,West,266,3.6,7.6,45,0.00,,---,0.00,VWS V14.01,2013-04-09 22:10:00,
2013-04-09 18:12:00,69.3,47.0,30.39,WNW,286,3.1,3.1,45,0.00,,---,0.00,VWS V14.01,2013-04-09 22:12:00,
2013-04-09 18:13:00,69.3,47.0,30.39,SW,214,3.1,3.1,45,0.00,,---,0.00,VWS V14.01,2013-04-09 22:13:00,
2013-04-09 18:15:00,69.3,47.0,30.39,SSW,206,4.0,4.0,45,0.00,,---,0.00,VWS V14.01,2013-04-09 22:15:00,
2013-04-09 18:17:00,69.1,46.9,30.39,WSW,246,3.6,3.6,45,0.00,,---,0.00,VWS V14.01,2013-04-09 22:17:00,
2013-04-09 18:18:00,69.1,46.9,30.39,South,173,4.9,4.9,45,0.00,,---,0.00,VWS V14.01,2013-04-09 22:18:00,
2013-04-09 18:20:00,69.1,46.9,30.39,West,266,3.1,3.1,45,0.00,,---,0.00,VWS V14.01,2013-04-09 22:20:00,
2013-04-09 18:22:00,69.1,46.9,30.39,South,174,2.7,2.7,45,0.00,,---,0.00,VWS V14.01,2013-04-09 22:22:00,
2013-04-09 18:24:00,69.1,46.9,30.39,SSE,164,3.1,3.1,45,0.00,,---,0.00,VWS V14.01,2013-04-09 22:24:00,
2013-04-09 18:25:00,69.1,46.9,30.39,East,92,3.6,3.6,45,0.00,,---,0.00,VWS V14.01,2013-04-09 22:25:00,
2013-04-09 18:27:00,69.1,46.9,30.39,South,185,3.1,3.1,45,0.00,,---,0.00,VWS V14.01,2013-04-09 22:27:00,
2013-04-09 18:29:00,68.9,46.7,30.39,South,178,8.1,8.1,45,0.00,,---,0.00,VWS V14.01,2013-04-09 22:29:00,
2013-04-09 18:30:00,68.9,46.7,30.36,South,175,5.4,5.4,45,0.00,,---,0.00,VWS V14.01,2013-04-09 22:30:00,
2013-04-09 18:33:00,68.9,46.7,30.36,SSW,194,2.7,3.1,45,0.00,,---,0.00,VWS V14.01,2013-04-09 22:33:00,
2013-04-09 18:34:00,68.9,46.7,30.36,SSW,195,2.7,2.7,45,0.00,,---,0.00,VWS V14.01,2013-04-09 22:34:00,
2013-04-09 18:35:00,68.7,46.5,30.36,SSW,202,0.0,2.7,45,0.00,,---,0.00,VWS V14.01,2013-04-09 22:35:00,
2013-04-09 18:38:00,68.7,46.5,30.36,SSE,168,4.0,4.0,45,0.00,,---,0.00,VWS V14.01,2013-04-09 22:38:00,
2013-04-09 18:39:00,68.7,46.5,30.36,WSW,238,3.6,3.6,45,0.00,,---,0.00,VWS V14.01,2013-04-09 22:39:00,
2013-04-09 18:40:00,68.7,46.5,30.36,SW,216,5.8,5.8,45,0.00,,---,0.00,VWS V14.01,2013-04-09 22:40:00,
2013-04-09 18:41:00,68.7,46.5,30.36,SW,216,5.8,5.8,45,0.00,,---,0.00,VWS V14.01,2013-04-09 22:41:00,
2013-04-09 18:43:00,68.4,46.8,30.36,SSW,195,2.7,3.1,46,0.00,,---,0.00,VWS V14.01,2013-04-09 22:43:00,
2013-04-09 18:45:00,68.4,47.4,30.36,SSE,150,0.0,3.1,47,0.00,,---,0.00,VWS V14.01,2013-04-09 22:45:00,
2013-04-09 18:46:00,68.5,47.5,30.36,South,175,3.1,3.1,47,0.00,,---,0.00,VWS V14.01,2013-04-09 22:46:00,
2013-04-09 18:48:00,68.5,47.5,30.36,WSW,255,3.1,3.1,47,0.00,,---,0.00,VWS V14.01,2013-04-09 22:48:00,
2013-04-09 18:50:00,68.5,47.5,30.36,SSE,162,6.3,6.3,47,0.00,,---,0.00,VWS V14.01,2013-04-09 22:50:00,
2013-04-09 18:52:00,68.5,47.5,30.36,SSE,162,3.1,5.4,47,0.00,,---,0.00,VWS V14.01,2013-04-09 22:52:00,
2013-04-09 18:53:00,68.5,47.5,30.36,SSE,160,3.6,3.6,47,0.00,,---,0.00,VWS V14.01,2013-04-09 22:53:00,
2013-04-09 18:55:00,68.5,47.5,30.36,ENE,59,3.6,4.0,47,0.00,,---,0.00,VWS V14.01,2013-04-09 22:55:00,
2013-04-09 18:57:00,68.9,46.7,30.36,South,186,4.9,4.9,45,0.00,,---,0.00,VWS V14.01,2013-04-09 22:57:00,
2013-04-09 18:58:00,68.9,46.7,30.36,South,186,4.9,4.9,45,0.00,,---,0.00,VWS V14.01,2013-04-09 22:58:00,
2013-04-09 19:00:00,68.9,46.7,30.36,SSE,163,4.9,4.9,45,0.00,,---,0.00,VWS V14.01,2013-04-09 23:00:00,
2013-04-09 19:02:00,68.9,47.3,30.36,NE,37,3.1,4.0,46,0.00,,---,0.00,VWS V14.01,2013-04-09 23:02:00,
2013-04-09 19:03:00,68.9,47.3,30.36,SSE,156,2.7,2.7,46,0.00,,---,0.00,VWS V14.01,2013-04-09 23:03:00,
2013-04-09 19:05:00,68.9,47.3,30.36,South,175,4.0,4.0,46,0.00,,---,0.00,VWS V14.01,2013-04-09 23:05:00,
2013-04-09 19:08:00,70.3,47.4,30.36,SW,218,2.7,2.7,44,0.00,,---,0.00,VWS V14.01,2013-04-09 23:08:00,
2013-04-09 19:10:00,70.3,46.8,30.36,SSE,154,3.1,3.6,43,0.00,,---,0.00,VWS V14.01,2013-04-09 23:10:00,
2013-04-09 19:13:00,70.0,46.5,30.36,SE,137,4.9,4.9,43,0.00,,---,0.00,VWS V14.01,2013-04-09 23:13:00,
2013-04-09 19:15:00,70.0,46.5,30.36,SE,145,5.4,5.4,43,0.00,,---,0.00,VWS V14.01,2013-04-09 23:15:00,
2013-04-09 19:18:00,69.8,47.5,30.36,South,189,2.7,2.7,45,0.00,,---,0.00,VWS V14.01,2013-04-09 23:18:00,
2013-04-09 19:20:00,69.8,46.9,30.36,South,191,2.7,2.7,44,0.00,,---,0.00,VWS V14.01,2013-04-09 23:20:00,
2013-04-09 19:23:00,69.8,46.9,30.36,SSE,149,3.6,3.6,44,0.00,,---,0.00,VWS V14.01,2013-04-09 23:23:00,
2013-04-09 19:24:00,69.8,46.9,30.36,South,187,4.0,4.0,44,0.00,,---,0.00,VWS V14.01,2013-04-09 23:24:00,
2013-04-09 19:25:00,69.8,46.9,30.36,SSE,159,6.3,6.3,44,0.00,,---,0.00,VWS V14.01,2013-04-09 23:25:00,
2013-04-09 19:26:00,69.8,46.9,30.36,SSE,159,6.3,6.3,44,0.00,,---,0.00,VWS V14.01,2013-04-09 23:26:00,
2013-04-09 19:28:00,69.8,46.9,30.36,SE,145,5.8,5.8,44,0.00,,---,0.00,VWS V14.01,2013-04-09 23:28:00,
2013-04-09 19:29:00,69.8,46.9,30.36,SW,215,8.3,8.3,44,0.00,,---,0.00,VWS V14.01,2013-04-09 23:29:00,
2013-04-09 19:30:00,69.4,46.6,30.36,South,175,8.7,8.7,44,0.00,,---,0.00,VWS V14.01,2013-04-09 23:30:00,
2013-04-09 19:31:00,69.4,46.6,30.36,South,190,5.8,8.7,44,0.00,,---,0.00,VWS V14.01,2013-04-09 23:31:00,
2013-04-09 19:33:00,69.3,47.0,30.36,SSE,168,3.1,3.1,45,0.00,,---,0.00,VWS V14.01,2013-04-09 23:33:00,
2013-04-09 19:34:00,69.3,47.0,30.36,SSE,168,3.1,3.1,45,0.00,,---,0.00,VWS V14.01,2013-04-09 23:34:00,
2013-04-09 19:35:00,69.3,47.0,30.36,SSW,203,4.9,4.9,45,0.00,,---,0.00,VWS V14.01,2013-04-09 23:35:00,
2013-04-09 19:36:00,69.3,47.0,30.36,SSW,203,4.9,4.9,45,0.00,,---,0.00,VWS V14.01,2013-04-09 23:36:00,
2013-04-09 19:39:00,69.1,46.9,30.36,South,169,3.1,3.1,45,0.00,,---,0.00,VWS V14.01,2013-04-09 23:39:00,
2013-04-09 19:40:00,69.1,46.9,30.36,West,259,3.1,5.4,45,0.00,,---,0.00,VWS V14.01,2013-04-09 23:40:00,
2013-04-09 19:41:00,69.1,46.9,30.36,SSE,168,6.3,6.3,45,0.00,,---,0.00,VWS V14.01,2013-04-09 23:41:00,
2013-04-09 19:44:00,68.2,46.6,30.36,SSW,210,3.1,6.3,46,0.00,,---,0.00,VWS V14.01,2013-04-09 23:44:00,
2013-04-09 19:45:00,68.2,46.6,30.36,South,176,3.6,3.6,46,0.00,,---,0.00,VWS V14.01,2013-04-09 23:45:00,
2013-04-09 19:46:00,68.2,46.6,30.36,NW,326,2.7,3.1,46,0.00,,---,0.00,VWS V14.01,2013-04-09 23:46:00,
2013-04-09 19:49:00,67.5,47.1,30.36,SSW,205,0.0,4.0,48,0.00,,---,0.00,VWS V14.01,2013-04-09 23:49:00,
2013-04-09 19:50:00,67.5,47.1,30.39,South,190,0.0,3.6,48,0.00,,---,0.00,VWS V14.01,2013-04-09 23:50:00,
2013-04-09 19:51:00,67.5,47.1,30.39,South,190,0.0,0.0,48,0.00,,---,0.00,VWS V14.01,2013-04-09 23:51:00,
2013-04-09 19:54:00,67.5,47.1,30.39,SSW,210,4.0,4.0,48,0.00,,---,0.00,VWS V14.01,2013-04-09 23:54:00,
2013-04-09 19:55:00,66.6,47.9,30.39,West,266,3.1,3.1,51,0.00,,---,0.00,VWS V14.01,2013-04-09 23:55:00,
2013-04-09 19:56:00,66.6,47.9,30.39,South,190,3.6,3.6,51,0.00,,---,0.00,VWS V14.01,2013-04-09 23:56:00,
2013-04-09 19:59:00,66.4,47.7,30.39,SSE,164,3.1,4.0,51,0.00,,---,0.00,VWS V14.01,2013-04-09 23:59:00,
2013-04-09 20:00:00,66.2,48.1,30.39,SSE,155,2.7,2.7,52,0.00,,---,0.00,VWS V14.01,2013-04-10 00:00:00,
2013-04-09 20:02:00,66.2,48.1,30.39,SSW,196,3.1,3.1,52,0.00,,---,0.00,VWS V14.01,2013-04-10 00:02:00,
2013-04-09 20:04:00,66.0,48.9,30.39,SSW,196,3.1,6.3,54,0.00,,---,0.00,VWS V14.01,2013-04-10 00:04:00,
2013-04-09 20:05:00,66.0,48.9,30.39,WSW,243,5.4,5.4,54,0.00,,---,0.00,VWS V14.01,2013-04-10 00:05:00,
2013-04-09 20:07:00,66.0,48.9,30.39,WSW,243,5.4,5.4,54,0.00,,---,0.00,VWS V14.01,2013-04-10 00:07:00,
2013-04-09 20:09:00,65.7,49.1,30.39,SSE,167,4.9,4.9,55,0.00,,---,0.00,VWS V14.01,2013-04-10 00:09:00,
2013-04-09 20:10:00,65.7,49.1,30.39,SSE,168,0.0,3.1,55,0.00,,---,0.00,VWS V14.01,2013-04-10 00:10:00,
2013-04-09 20:12:00,65.7,49.1,30.39,SSW,192,3.6,5.4,55,0.00,,---,0.00,VWS V14.01,2013-04-10 00:12:00,
2013-04-09 20:14:00,65.5,49.4,30.39,SSE,155,5.8,5.8,56,0.00,,---,0.00,VWS V14.01,2013-04-10 00:14:00,
2013-04-09 20:15:00,65.5,49.4,30.39,SSW,210,3.1,3.1,56,0.00,,---,0.00,VWS V14.01,2013-04-10 00:15:00,
2013-04-09 20:17:00,65.3,49.7,30.39,SW,221,4.9,4.9,57,0.00,,---,0.00,VWS V14.01,2013-04-10 00:17:00,
2013-04-09 20:19:00,65.3,50.2,30.39,South,187,0.0,4.9,58,0.00,,---,0.00,VWS V14.01,2013-04-10 00:19:00,
2013-04-09 20:20:00,65.1,50.0,30.39,SW,218,0.0,0.0,58,0.00,,---,0.00,VWS V14.01,2013-04-10 00:20:00,
2013-04-09 20:22:00,65.1,50.0,30.39,SSE,153,2.7,3.1,58,0.00,,---,0.00,VWS V14.01,2013-04-10 00:22:00,
2013-04-09 20:24:00,65.1,50.0,30.39,WSW,237,2.2,2.7,58,0.00,,---,0.00,VWS V14.01,2013-04-10 00:24:00,
2013-04-09 20:25:00,65.1,50.5,30.39,West,271,2.7,7.6,59,0.00,,---,0.00,VWS V14.01,2013-04-10 00:25:00,
2013-04-09 20:27:00,65.1,50.5,30.39,SE,135,2.7,2.7,59,0.00,,---,0.00,VWS V14.01,2013-04-10 00:27:00,
2013-04-09 20:29:00,65.1,50.9,30.39,SE,135,2.7,2.7,60,0.00,,---,0.00,VWS V14.01,2013-04-10 00:29:00,
2013-04-09 20:31:00,65.1,50.9,30.39,SE,135,2.7,2.7,60,0.00,,---,0.00,VWS V14.01,2013-04-10 00:31:00,
2013-04-09 20:32:00,65.1,50.9,30.39,South,180,2.2,2.2,60,0.00,,---,0.00,VWS V14.01,2013-04-10 00:32:00,
2013-04-09 20:34:00,65.1,50.9,30.39,SE,145,5.4,5.4,60,0.00,,---,0.00,VWS V14.01,2013-04-10 00:34:00,
2013-04-09 20:36:00,65.1,50.9,30.39,NNW,334,3.1,3.1,60,0.00,,---,0.00,VWS V14.01,2013-04-10 00:36:00,
2013-04-09 20:38:00,65.1,51.3,30.39,NE,43,0.0,3.1,61,0.00,,---,0.00,VWS V14.01,2013-04-10 00:38:00,
2013-04-09 20:39:00,65.1,51.3,30.39,SSW,210,0.0,0.0,61,0.00,,---,0.00,VWS V14.01,2013-04-10 00:39:00,
2013-04-09 20:41:00,65.1,51.3,30.39,SSE,157,4.0,4.0,61,0.00,,---,0.00,VWS V14.01,2013-04-10 00:41:00,
2013-04-09 20:43:00,65.1,51.3,30.39,SW,218,0.0,0.0,61,0.00,,---,0.00,VWS V14.01,2013-04-10 00:43:00,
2013-04-09 20:44:00,65.1,51.3,30.39,North,353,3.6,3.6,61,0.00,,---,0.00,VWS V14.01,2013-04-10 00:44:00,
2013-04-09 20:46:00,65.1,51.3,30.39,SSE,151,4.0,4.0,61,0.00,,---,0.00,VWS V14.01,2013-04-10 00:46:00,
2013-04-09 20:48:00,65.3,51.5,30.39,SSE,151,4.0,4.0,61,0.00,,---,0.00,VWS V14.01,2013-04-10 00:48:00,
2013-04-09 20:49:00,65.3,51.5,30.39,South,171,3.6,3.6,61,0.00,,---,0.00,VWS V14.01,2013-04-10 00:49:00,
2013-04-09 20:51:00,65.3,51.5,30.39,NE,50,2.7,2.7,61,0.00,,---,0.00,VWS V14.01,2013-04-10 00:51:00,
2013-04-09 20:53:00,65.3,51.5,30.39,South,182,4.9,4.9,61,0.00,,---,0.00,VWS V14.01,2013-04-10 00:53:00,
2013-04-09 20:54:00,65.3,51.5,30.39,SSE,162,2.7,2.7,61,0.00,,---,0.00,VWS V14.01,2013-04-10 00:54:00,
2013-04-09 20:57:00,65.3,51.5,30.39,South,177,3.6,5.4,61,0.00,,---,0.00,VWS V14.01,2013-04-10 00:57:00,
2013-04-09 20:58:00,65.3,51.5,30.39,ESE,114,3.1,3.1,61,0.00,,---,0.00,VWS V14.01,2013-04-10 00:58:00,
2013-04-09 20:59:00,65.3,51.5,30.39,SW,215,0.0,3.1,61,0.00,,---,0.00,VWS V14.01,2013-04-10 00:59:00,
2013-04-09 21:00:00,65.3,51.5,30.39,SW,215,0.0,3.1,61,0.00,,---,0.00,VWS V14.01,2013-04-10 01:00:00,
2013-04-09 21:02:00,65.1,51.3,30.39,SSW,203,0.0,0.0,61,0.00,,---,0.00,VWS V14.01,2013-04-10 01:02:00,
2013-04-09 21:03:00,65.1,51.3,30.39,SSW,203,0.0,0.0,61,0.00,,---,0.00,VWS V14.01,2013-04-10 01:03:00,
2013-04-09 21:04:00,65.1,51.3,30.39,SSW,203,0.0,0.0,61,0.00,,---,0.00,VWS V14.01,2013-04-10 01:04:00,
2013-04-09 21:05:00,65.1,51.3,30.39,ESE,119,0.0,0.0,61,0.00,,---,0.00,VWS V14.01,2013-04-10 01:05:00,
2013-04-09 21:07:00,65.1,51.3,30.39,SSE,164,4.0,4.0,61,0.00,,---,0.00,VWS V14.01,2013-04-10 01:07:00,
2013-04-09 21:08:00,65.1,51.3,30.39,SSE,162,3.1,3.1,61,0.00,,---,0.00,VWS V14.01,2013-04-10 01:08:00,
2013-04-09 21:09:00,65.1,51.3,30.39,North,7,2.7,2.7,61,0.00,,---,0.00,VWS V14.01,2013-04-10 01:09:00,
2013-04-09 21:10:00,65.1,51.3,30.39,North,7,2.7,2.7,61,0.00,,---,0.00,VWS V14.01,2013-04-10 01:10:00,
2013-04-09 21:12:00,64.9,50.7,30.39,ESE,104,0.0,3.1,60,0.00,,---,0.00,VWS V14.01,2013-04-10 01:12:00,
2013-04-09 21:14:00,64.9,50.7,30.39,SE,143,0.0,0.0,60,0.00,,---,0.00,VWS V14.01,2013-04-10 01:14:00,
2013-04-09 21:15:00,64.9,50.7,30.39,ESE,122,0.0,0.0,60,0.00,,---,0.00,VWS V14.01,2013-04-10 01:15:00,
2013-04-09 21:17:00,64.9,51.2,30.39,SE,126,0.0,0.0,61,0.00,,---,0.00,VWS V14.01,2013-04-10 01:17:00,
2013-04-09 21:19:00,64.8,51.0,30.39,ESE,111,0.0,0.0,61,0.00,,---,0.00,VWS V14.01,2013-04-10 01:19:00,
2013-04-09 21:20:00,64.8,51.0,30.39,ESE,111,0.0,0.0,61,0.00,,---,0.00,VWS V14.01,2013-04-10 01:20:00,
2013-04-09 21:22:00,64.8,51.0,30.39,SSW,208,0.0,0.0,61,0.00,,---,0.00,VWS V14.01,2013-04-10 01:22:00,
2013-04-09 21:24:00,64.8,51.0,30.39,ESE,104,0.0,0.0,61,0.00,,---,0.00,VWS V14.01,2013-04-10 01:24:00,
2013-04-09 21:25:00,64.8,51.0,30.39,WSW,249,2.7,3.1,61,0.00,,---,0.00,VWS V14.01,2013-04-10 01:25:00,
2013-04-09 21:27:00,64.8,51.0,30.39,ESE,106,3.6,4.0,61,0.00,,---,0.00,VWS V14.01,2013-04-10 01:27:00,
2013-04-09 21:29:00,64.8,51.0,30.39,SW,227,0.0,3.6,61,0.00,,---,0.00,VWS V14.01,2013-04-10 01:29:00,
2013-04-09 21:30:00,64.8,51.0,30.39,South,191,2.7,2.7,61,0.00,,---,0.00,VWS V14.01,2013-04-10 01:30:00,
2013-04-09 21:32:00,64.6,51.7,30.39,South,179,3.6,3.6,63,0.00,,---,0.00,VWS V14.01,2013-04-10 01:32:00,
2013-04-09 21:34:00,64.6,51.7,30.39,SSW,211,2.2,3.6,63,0.00,,---,0.00,VWS V14.01,2013-04-10 01:34:00,
2013-04-09 21:35:00,64.6,51.7,30.39,SE,138,5.4,5.4,63,0.00,,---,0.00,VWS V14.01,2013-04-10 01:35:00,
2013-04-09 21:38:00,64.6,51.7,30.39,North,0,0.0,0.0,63,0.00,,---,0.00,VWS V14.01,2013-04-10 01:38:00,
2013-04-09 21:39:00,64.6,51.7,30.39,SSW,210,3.1,3.1,63,0.00,,---,0.00,VWS V14.01,2013-04-10 01:39:00,
2013-04-09 21:40:00,64.6,51.7,30.39,SSE,163,0.0,0.0,63,0.00,,---,0.00,VWS V14.01,2013-04-10 01:40:00,
2013-04-09 21:43:00,64.4,52.4,30.39,South,180,0.0,2.2,65,0.00,,---,0.00,VWS V14.01,2013-04-10 01:43:00,
2013-04-09 21:44:00,64.4,52.4,30.39,South,181,0.0,2.2,65,0.00,,---,0.00,VWS V14.01,2013-04-10 01:44:00,
2013-04-09 21:45:00,64.4,52.4,30.39,South,181,0.0,0.0,65,0.00,,---,0.00,VWS V14.01,2013-04-10 01:45:00,
2013-04-09 21:48:00,64.4,52.8,30.39,SSW,212,0.0,3.1,66,0.00,,---,0.00,VWS V14.01,2013-04-10 01:48:00,
2013-04-09 21:49:00,64.4,52.8,30.39,SE,139,2.2,3.1,66,0.00,,---,0.00,VWS V14.01,2013-04-10 01:49:00,
2013-04-09 21:50:00,64.4,52.8,30.39,SE,139,2.2,3.1,66,0.00,,---,0.00,VWS V14.01,2013-04-10 01:50:00,
2013-04-09 21:53:00,64.4,52.8,30.39,SW,220,0.0,0.0,66,0.00,,---,0.00,VWS V14.01,2013-04-10 01:53:00,
2013-04-09 21:54:00,64.4,52.8,30.39,SSE,160,0.0,0.0,66,0.00,,---,0.00,VWS V14.01,2013-04-10 01:54:00,
2013-04-09 21:55:00,64.4,53.2,30.39,SE,141,4.0,4.0,67,0.00,,---,0.00,VWS V14.01,2013-04-10 01:55:00,
2013-04-09 21:58:00,64.4,53.2,30.39,South,178,5.4,5.4,67,0.00,,---,0.00,VWS V14.01,2013-04-10 01:58:00,
2013-04-09 21:59:00,64.4,53.2,30.39,SSW,199,0.0,0.0,67,0.00,,---,0.00,VWS V14.01,2013-04-10 01:59:00,
2013-04-09 22:00:00,64.4,53.2,30.39,SSW,212,0.0,0.0,67,0.00,,---,0.00,VWS V14.01,2013-04-10 02:00:00,
2013-04-09 22:03:00,64.4,53.2,30.39,SW,216,2.7,2.7,67,0.00,,---,0.00,VWS V14.01,2013-04-10 02:03:00,
2013-04-09 22:04:00,64.4,53.2,30.39,SW,223,0.0,0.0,67,0.00,,---,0.00,VWS V14.01,2013-04-10 02:04:00,
2013-04-09 22:05:00,64.4,53.2,30.39,SW,223,0.0,0.0,67,0.00,,---,0.00,VWS V14.01,2013-04-10 02:05:00,
2013-04-09 22:08:00,64.4,53.6,30.39,South,191,2.2,4.0,68,0.00,,---,0.00,VWS V14.01,2013-04-10 02:08:00,
2013-04-09 22:09:00,64.4,53.6,30.39,South,191,2.2,2.2,68,0.00,,---,0.00,VWS V14.01,2013-04-10 02:09:00,
2013-04-09 22:10:00,64.4,53.6,30.39,South,176,2.2,2.2,68,0.00,,---,0.00,VWS V14.01,2013-04-10 02:10:00,
2013-04-09 22:13:00,64.4,53.6,30.39,West,267,2.7,5.4,68,0.00,,---,0.00,VWS V14.01,2013-04-10 02:13:00,
2013-04-09 22:14:00,64.4,53.6,30.39,South,183,3.1,3.1,68,0.00,,---,0.00,VWS V14.01,2013-04-10 02:14:00,
2013-04-09 22:15:00,64.4,53.6,30.39,WSW,249,3.1,3.1,68,0.00,,---,0.00,VWS V14.01,2013-04-10 02:15:00,
2013-04-09 22:16:00,64.4,53.6,30.39,WSW,249,3.1,3.1,68,0.00,,---,0.00,VWS V14.01,2013-04-10 02:16:00,
2013-04-09 22:19:00,64.4,54.4,30.39,WSW,238,0.0,3.1,70,0.00,,---,0.00,VWS V14.01,2013-04-10 02:19:00,
2013-04-09 22:20:00,64.4,54.4,30.39,South,188,0.0,0.0,70,0.00,,---,0.00,VWS V14.01,2013-04-10 02:20:00,
2013-04-09 22:21:00,64.4,54.4,30.39,SW,214,2.2,5.8,70,0.00,,---,0.00,VWS V14.01,2013-04-10 02:21:00,
2013-04-09 22:24:00,64.6,54.6,30.39,SSW,200,3.1,4.9,70,0.00,,---,0.00,VWS V14.01,2013-04-10 02:24:00,
2013-04-09 22:25:00,64.6,54.6,30.39,South,190,2.7,3.1,70,0.00,,---,0.00,VWS V14.01,2013-04-10 02:25:00,
2013-04-09 22:26:00,64.6,54.6,30.39,South,174,5.8,5.8,70,0.00,,---,0.00,VWS V14.01,2013-04-10 02:26:00,
2013-04-09 22:29:00,64.6,54.6,30.39,SE,142,0.0,2.7,70,0.00,,---,0.00,VWS V14.01,2013-04-10 02:29:00,
2013-04-09 22:30:00,64.6,54.6,30.39,SE,134,4.0,4.0,70,0.00,,---,0.00,VWS V14.01,2013-04-10 02:30:00,
2013-04-09 22:31:00,64.6,54.6,30.39,SSW,196,0.0,2.7,70,0.00,,---,0.00,VWS V14.01,2013-04-10 02:31:00,
2013-04-09 22:34:00,64.6,54.6,30.39,WSW,239,5.8,5.8,70,0.00,,---,0.00,VWS V14.01,2013-04-10 02:34:00,
2013-04-09 22:35:00,64.6,54.6,30.39,WSW,245,4.9,5.8,70,0.00,,---,0.00,VWS V14.01,2013-04-10 02:35:00,
2013-04-09 22:37:00,64.6,54.6,30.39,SW,224,3.6,3.6,70,0.00,,---,0.00,VWS V14.01,2013-04-10 02:37:00,
2013-04-09 22:39:00,64.6,54.6,30.39,SE,137,2.7,2.7,70,0.00,,---,0.00,VWS V14.01,2013-04-10 02:39:00,
2013-04-09 22:40:00,64.6,54.2,30.39,WSW,249,2.2,2.7,69,0.00,,---,0.00,VWS V14.01,2013-04-10 02:40:00,
2013-04-09 22:42:00,64.6,54.2,30.39,SSW,213,2.7,2.7,69,0.00,,---,0.00,VWS V14.01,2013-04-10 02:42:00,
2013-04-09 22:44:00,64.6,54.2,30.39,WSW,241,3.1,3.1,69,0.00,,---,0.00,VWS V14.01,2013-04-10 02:44:00,
2013-04-09 22:45:00,64.4,54.0,30.39,WSW,241,3.1,3.1,69,0.00,,---,0.00,VWS V14.01,2013-04-10 02:45:00,
2013-04-09 22:47:00,64.4,54.0,30.39,WSW,253,4.0,4.0,69,0.00,,---,0.00,VWS V14.01,2013-04-10 02:47:00,
2013-04-09 22:49:00,64.4,54.0,30.39,SW,234,0.0,0.0,69,0.00,,---,0.00,VWS V14.01,2013-04-10 02:49:00,
2013-04-09 22:50:00,64.4,54.0,30.39,SSE,156,3.6,3.6,69,0.00,,---,0.00,VWS V14.01,2013-04-10 02:50:00,
2013-04-09 22:52:00,64.4,54.4,30.39,SSW,209,0.0,0.0,70,0.00,,---,0.00,VWS V14.01,2013-04-10 02:52:00,
2013-04-09 22:54:00,64.4,54.4,30.39,SSW,197,0.0,0.0,70,0.00,,---,0.00,VWS V14.01,2013-04-10 02:54:00,
2013-04-09 22:55:00,64.4,54.4,30.39,SSW,197,0.0,0.0,70,0.00,,---,0.00,VWS V14.01,2013-04-10 02:55:00,
2013-04-09 22:57:00,64.4,54.4,30.39,SW,236,5.8,5.8,70,0.00,,---,0.00,VWS V14.01,2013-04-10 02:57:00,
2013-04-09 22:59:00,64.4,54.8,30.39,SE,138,0.0,0.0,71,0.00,,---,0.00,VWS V14.01,2013-04-10 02:59:00,
2013-04-09 23:00:00,64.4,54.8,30.39,SSW,194,4.9,4.9,71,0.00,,---,0.00,VWS V14.01,2013-04-10 03:00:00,
2013-04-09 23:02:00,64.4,54.8,30.39,South,184,0.0,2.2,71,0.00,,---,0.00,VWS V14.01,2013-04-10 03:02:00,
2013-04-09 23:04:00,64.4,54.8,30.39,WSW,244,2.2,3.1,71,0.00,,---,0.00,VWS V14.01,2013-04-10 03:04:00,
2013-04-09 23:05:00,64.4,54.8,30.39,WSW,244,2.2,3.1,71,0.00,,---,0.00,VWS V14.01,2013-04-10 03:05:00,
2013-04-09 23:07:00,64.4,54.8,30.39,SSW,193,0.0,0.0,71,0.00,,---,0.00,VWS V14.01,2013-04-10 03:07:00,
2013-04-09 23:09:00,64.4,54.8,30.39,ESE,107,0.0,0.0,71,0.00,,---,0.00,VWS V14.01,2013-04-10 03:09:00,
2013-04-09 23:10:00,64.4,54.8,30.39,SW,214,0.0,0.0,71,0.00,,---,0.00,VWS V14.01,2013-04-10 03:10:00,
2013-04-09 23:12:00,64.4,54.8,30.39,SSW,199,0.0,2.7,71,0.00,,---,0.00,VWS V14.01,2013-04-10 03:12:00,
2013-04-09 23:15:00,64.4,54.8,30.39,SE,146,2.7,4.9,71,0.00,,---,0.00,VWS V14.01,2013-04-10 03:15:00,
2013-04-09 23:17:00,64.4,54.8,30.39,East,79,0.0,0.0,71,0.00,,---,0.00,VWS V14.01,2013-04-10 03:17:00,
2013-04-09 23:20:00,64.4,55.2,30.39,West,270,0.0,2.7,72,0.00,,---,0.00,VWS V14.01,2013-04-10 03:20:00,
2013-04-09 23:23:00,64.4,55.2,30.39,SSW,204,0.0,0.0,72,0.00,,---,0.00,VWS V14.01,2013-04-10 03:23:00,
2013-04-09 23:25:00,64.4,55.2,30.39,SSW,206,2.7,2.7,72,0.00,,---,0.00,VWS V14.01,2013-04-10 03:25:00,
2013-04-09 23:28:00,64.4,55.2,30.39,NNW,343,0.0,0.0,72,0.00,,---,0.00,VWS V14.01,2013-04-10 03:28:00,
2013-04-09 23:30:00,64.2,55.0,30.39,North,4,2.2,4.0,72,0.00,,---,0.00,VWS V14.01,2013-04-10 03:30:00,
2013-04-09 23:33:00,64.2,55.0,30.39,SW,214,2.7,2.7,72,0.00,,---,0.00,VWS V14.01,2013-04-10 03:33:00,
2013-04-09 23:35:00,64.2,55.4,30.39,South,177,0.0,0.0,73,0.00,,---,0.00,VWS V14.01,2013-04-10 03:35:00,
2013-04-09 23:38:00,64.2,55.4,30.39,South,180,2.7,5.8,73,0.00,,---,0.00,VWS V14.01,2013-04-10 03:38:00,
2013-04-09 23:40:00,64.2,55.4,30.39,SE,145,2.2,2.2,73,0.00,,---,0.00,VWS V14.01,2013-04-10 03:40:00,
2013-04-09 23:43:00,64.2,55.4,30.39,SW,231,0.0,3.1,73,0.00,,---,0.00,VWS V14.01,2013-04-10 03:43:00,
2013-04-09 23:45:00,64.2,55.4,30.39,South,189,0.0,0.0,73,0.00,,---,0.00,VWS V14.01,2013-04-10 03:45:00,
2013-04-09 23:48:00,64.2,55.4,30.39,NNE,32,0.0,0.0,73,0.00,,---,0.00,VWS V14.01,2013-04-10 03:48:00,
2013-04-09 23:50:00,63.9,55.0,30.39,NE,39,0.0,0.0,73,0.00,,---,0.00,VWS V14.01,2013-04-10 03:50:00,
2013-04-09 23:51:00,63.9,55.0,30.39,NE,39,0.0,0.0,73,0.00,,---,0.00,VWS V14.01,2013-04-10 03:51:00,
2013-04-09 23:53:00,63.9,55.0,30.39,South,169,0.0,2.7,73,0.00,,---,0.00,VWS V14.01,2013-04-10 03:53:00,
2013-04-09 23:55:00,63.9,55.4,30.39,South,176,0.0,0.0,74,0.00,,---,0.00,VWS V14.01,2013-04-10 03:55:00,
2013-04-09 23:56:00,63.9,55.4,30.39,South,176,0.0,0.0,74,0.00,,---,0.00,VWS V14.01,2013-04-10 03:56:00,
2013-04-09 23:58:00,63.7,55.2,30.39,South,182,2.7,2.7,74,0.00,,---,0.00,VWS V14.01,2013-04-10 03:58:00,